<- Previous Day | Today | Next Day ->

All Data for 31 March 2020

 

Time A - D Temp A - D Dew Point A - D Humidity A - D Pressure A - D Wind A - D Wind Dir Gust A - D Rain Rate A - D Rain Total
00:00 6.0 1.3 72 1031.4 9.2 N 9.8 0.0 0.0
00:01 6.0 1.3 72 1031.3 4.5 N 9.2 0.0 0.0
00:02 6.0 1.3 72 1031.4 4.5 NE 9.2 0.0 0.0
00:03 5.9 1.2 72 1031.5 6.0 N 9.2 0.0 0.0
00:04 5.9 1.2 72 1031.3 6.0 NE 9.2 0.0 0.0
00:05 5.9 1.2 72 1031.4 6.0 N 9.2 0.0 0.0
00:06 5.8 1.1 72 1031.4 6.0 N 9.2 0.0 0.0
00:07 5.8 1.1 72 1031.3 6.0 N 9.2 0.0 0.0
00:08 5.8 1.1 72 1031.3 5.4 N 9.2 0.0 0.0
00:09 5.8 1.1 72 1031.3 8.3 NNE 9.2 0.0 0.0
00:10 5.8 1.1 72 1031.3 6.0 N 8.3 0.0 0.0
00:11 5.8 1.1 72 1031.3 5.4 NW 8.3 0.0 0.0
00:12 5.7 1.1 72 1031.3 7.6 NW 8.3 0.0 0.0
00:13 5.7 1.2 73 1031.3 6.0 N 8.3 0.0 0.0
00:14 5.7 1.2 73 1031.2 6.0 N 8.3 0.0 0.0
00:15 5.7 1.2 73 1031.1 5.4 NW 8.3 0.0 0.0
00:16 5.7 1.2 73 1031.4 6.0 NE 8.3 0.0 0.0
00:17 5.7 1.2 73 1031.2 4.5 N 8.3 0.0 0.0
00:18 5.7 1.2 73 1031.4 6.9 N 8.3 0.0 0.0
00:19 5.7 1.2 73 1031.3 4.5 N 8.3 0.0 0.0
00:20 5.7 1.2 73 1031.4 6.0 W 8.3 0.0 0.0
00:21 5.7 1.2 73 1031.2 3.8 NW 7.6 0.0 0.0
00:22 5.7 1.2 73 1031.3 3.8 NW 7.6 0.0 0.0
00:23 5.7 1.2 73 1031.2 3.8 W 6.9 0.0 0.0
00:24 5.6 1.1 73 1031.1 4.5 N 6.9 0.0 0.0
00:25 5.6 1.1 73 1031.1 6.0 NE 6.9 0.0 0.0
00:26 5.6 1.1 73 1031.2 6.0 NE 6.9 0.0 0.0
00:27 5.6 1.1 73 1031.2 6.0 NE 6.9 0.0 0.0
00:28 5.6 1.1 73 1031.1 6.0 NE 6.9 0.0 0.0
00:29 5.5 1.0 73 1031.2 5.4 NE 6.0 0.0 0.0
00:30 5.5 1.0 73 1031.2 5.4 S 6.0 0.0 0.0
00:31 5.5 1.0 73 1031.2 5.4 S 6.0 0.0 0.0
00:32 5.5 1.2 74 1031.1 5.4 NW 6.0 0.0 0.0
00:33 5.5 1.2 74 1031.0 4.5 NE 6.0 0.0 0.0
00:34 5.5 1.2 74 1031.4 6.9 NE 6.9 0.0 0.0
00:35 5.5 1.2 74 1031.4 6.9 NE 6.9 0.0 0.0
00:36 5.5 1.2 74 1031.2 6.9 NE 6.9 0.0 0.0
00:37 5.4 1.1 74 1031.1 4.5 NE 6.9 0.0 0.0
00:38 5.4 1.1 74 1031.3 4.5 NW 6.9 0.0 0.0
00:40 5.3 1.0 74 1031.2 5.4 N 6.9 0.0 0.0
00:41 5.3 1.0 74 1031.1 5.4 NE 6.9 0.0 0.0
00:42 5.3 1.0 74 1031.1 5.4 NW 6.9 0.0 0.0
00:43 5.3 1.0 74 1031.1 4.5 NW 6.9 0.0 0.0
00:44 5.3 1.0 74 1031.1 4.5 NW 6.9 0.0 0.0
00:45 5.3 1.0 74 1031.1 6.9 N 6.9 0.0 0.0
00:46 5.3 1.2 75 1031.2 5.4 NE 6.9 0.0 0.0
00:47 5.3 1.2 75 1031.2 4.5 N 6.9 0.0 0.0
00:48 5.3 1.2 75 1031.2 6.9 N 6.9 0.0 0.0
00:49 5.2 1.1 75 1031.0 6.9 N 6.9 0.0 0.0
00:50 5.2 1.1 75 1031.1 3.8 N 6.9 0.0 0.0
00:51 5.2 1.1 75 1031.2 3.8 N 6.9 0.0 0.0
00:52 5.2 1.1 75 1031.2 5.4 N 6.9 0.0 0.0
00:53 5.2 1.1 75 1031.1 6.9 NE 6.9 0.0 0.0
00:54 5.2 1.1 75 1031.3 6.9 NE 6.9 0.0 0.0
00:55 5.2 1.1 75 1031.2 4.5 N 6.9 0.0 0.0
00:56 5.2 1.1 75 1031.1 5.4 NE 6.9 0.0 0.0
00:57 5.2 1.1 75 1031.1 5.4 NE 6.9 0.0 0.0
00:58 5.2 1.3 76 1031.1 6.9 NE 6.9 0.0 0.0
00:59 5.2 1.3 76 1031.2 6.0 N 6.9 0.0 0.0
01:00 5.2 1.3 76 1031.3 6.0 N 6.9 0.0 0.0
01:01 5.2 1.3 76 1031.2 6.0 N 6.9 0.0 0.0
01:02 5.2 1.3 76 1031.2 6.0 N 6.9 0.0 0.0
01:03 5.2 1.3 76 1031.1 6.0 N 6.9 0.0 0.0
01:04 5.2 1.3 76 1031.1 6.0 N 6.9 0.0 0.0
01:05 5.2 1.3 76 1031.2 6.0 N 6.9 0.0 0.0
01:06 5.3 1.4 76 1031.2 9.8 NW 9.8 0.0 0.0
01:07 5.3 1.4 76 1031.0 6.0 NE 9.8 0.0 0.0
01:08 5.3 1.4 76 1031.2 6.0 NE 9.8 0.0 0.0
01:09 5.3 1.6 77 1031.1 5.4 N 9.8 0.0 0.0
01:10 5.3 1.6 77 1031.1 7.6 N 9.8 0.0 0.0
01:11 5.3 1.6 77 1031.2 6.9 N 9.8 0.0 0.0
01:12 5.4 1.7 77 1031.0 6.9 NE 9.8 0.0 0.0
01:13 5.4 1.7 77 1031.3 7.6 NE 9.8 0.0 0.0
01:14 5.4 1.7 77 1031.0 7.6 NE 9.8 0.0 0.0
01:15 5.4 1.7 77 1031.2 5.4 N 9.8 0.0 0.0
01:16 5.4 1.7 77 1031.1 9.2 N 9.2 0.0 0.0
01:17 5.4 1.7 77 1031.3 6.0 N 9.2 0.0 0.0
01:18 5.4 1.7 77 1031.2 6.0 N 9.2 0.0 0.0
01:19 5.5 1.8 77 1031.1 5.4 NE 9.2 0.0 0.0
01:20 5.5 1.8 77 1031.1 6.9 NE 9.2 0.0 0.0
01:21 5.5 1.8 77 1031.0 6.9 NE 9.2 0.0 0.0
01:22 5.5 1.8 77 1031.1 8.3 NW 9.2 0.0 0.0
01:23 5.5 1.8 77 1031.1 8.3 NE 9.2 0.0 0.0
01:24 5.5 1.8 77 1031.2 8.3 NE 9.2 0.0 0.0
01:25 5.5 1.8 77 1031.0 6.9 N 9.2 0.0 0.0
01:26 5.5 1.8 77 1031.0 6.9 NE 9.2 0.0 0.0
01:27 5.5 1.8 77 1031.1 8.3 N 8.3 0.0 0.0
01:28 5.5 1.8 77 1031.1 8.3 N 8.3 0.0 0.0
01:29 5.5 1.6 76 1031.0 11.4 NW 11.4 0.0 0.0
01:30 5.5 1.6 76 1031.2 6.9 NW 11.4 0.0 0.0
01:31 5.5 1.6 76 1031.0 14.5 NE 14.5 0.0 0.0
01:32 5.5 1.6 76 1031.0 14.5 NE 14.5 0.0 0.0
01:33 5.5 1.6 76 1031.1 9.8 NW 14.5 0.0 0.0
01:34 5.5 1.6 76 1031.0 7.6 NNE 14.5 0.0 0.0
01:35 5.5 1.6 76 1030.9 7.6 NE 14.5 0.0 0.0
01:36 5.5 1.6 76 1031.0 6.0 NE 14.5 0.0 0.0
01:37 5.5 1.6 76 1031.0 9.2 N 14.5 0.0 0.0
01:38 5.5 1.6 76 1031.1 6.0 N 14.5 0.0 0.0
01:39 5.5 1.6 76 1031.0 6.9 N 14.5 0.0 0.0
01:40 5.5 1.6 76 1030.9 6.9 N 14.5 0.0 0.0
01:41 5.5 1.6 76 1031.1 4.5 NNE 14.5 0.0 0.0
01:42 5.6 1.7 76 1031.1 6.0 NE 14.5 0.0 0.0
01:43 5.5 1.6 76 1031.0 6.0 N 9.8 0.0 0.0
01:45 5.5 1.6 76 1031.2 6.0 NE 9.2 0.0 0.0
01:46 5.5 1.6 76 1031.2 7.6 N 9.2 0.0 0.0
01:47 5.5 1.6 76 1031.1 6.9 N 9.2 0.0 0.0
01:48 5.5 1.6 76 1030.9 5.4 N 9.2 0.0 0.0
01:49 5.5 1.6 76 1030.9 3.1 N 9.2 0.0 0.0
01:50 5.5 1.6 76 1030.8 6.9 N 9.2 0.0 0.0
01:51 5.5 1.6 76 1030.8 6.9 N 9.2 0.0 0.0
01:52 5.5 1.6 76 1031.0 4.5 NE 9.2 0.0 0.0
01:53 5.5 1.6 76 1030.8 4.5 NE 9.2 0.0 0.0
01:54 5.5 1.6 76 1031.0 3.1 NE 9.2 0.0 0.0
01:55 5.4 1.5 76 1030.9 4.5 N 9.2 0.0 0.0
01:56 5.4 1.5 76 1031.0 5.4 NE 7.6 0.0 0.0
01:57 5.4 1.5 76 1031.0 5.4 NE 6.9 0.0 0.0
01:58 5.4 1.5 76 1030.8 3.8 N 6.9 0.0 0.0
01:59 5.4 1.5 76 1030.8 6.0 NE 6.9 0.0 0.0
02:00 5.3 1.4 76 1030.9 6.0 N 6.9 0.0 0.0
02:01 5.3 1.4 76 1030.9 6.0 N 6.0 0.0 0.0
02:02 5.3 1.4 76 1030.9 6.0 N 6.0 0.0 0.0
02:03 5.3 1.4 76 1030.9 6.0 N 6.0 0.0 0.0
02:04 5.3 1.4 76 1030.9 6.0 N 6.0 0.0 0.0
02:05 5.3 1.4 76 1030.9 6.0 N 6.0 0.0 0.0
02:06 5.2 1.5 77 1030.8 4.5 NE 6.0 0.0 0.0
02:07 5.2 1.5 77 1030.9 6.0 NW 6.0 0.0 0.0
02:08 5.2 1.5 77 1030.8 6.9 NE 6.9 0.0 0.0
02:09 5.2 1.5 77 1030.9 6.9 N 6.9 0.0 0.0
02:10 5.2 1.5 77 1030.7 4.5 N 6.9 0.0 0.0
02:11 5.2 1.5 77 1030.7 4.5 NE 6.9 0.0 0.0
02:12 5.2 1.5 77 1030.7 4.5 N 6.9 0.0 0.0
02:13 5.2 1.5 77 1030.5 6.9 NE 6.9 0.0 0.0
02:14 5.2 1.5 77 1030.8 6.0 N 6.9 0.0 0.0
02:15 5.2 1.5 77 1030.6 3.8 NW 6.9 0.0 0.0
02:16 5.1 1.4 77 1030.6 6.9 N 6.9 0.0 0.0
02:17 5.1 1.4 77 1030.7 6.9 NE 6.9 0.0 0.0
02:18 5.1 1.6 78 1030.6 5.4 NW 6.9 0.0 0.0
02:19 5.1 1.6 78 1030.7 5.4 N 6.9 0.0 0.0
02:20 5.1 1.6 78 1030.5 5.4 S 6.9 0.0 0.0
02:21 5.1 1.6 78 1030.8 6.0 N 7.6 0.0 0.0
02:22 5.1 1.6 78 1031.0 9.2 NE 9.2 0.0 0.0
02:23 5.1 1.6 78 1030.5 9.2 NE 9.2 0.0 0.0
02:24 5.1 1.6 78 1030.8 9.2 N 9.2 0.0 0.0
02:25 5.0 1.5 78 1030.5 6.0 NNE 9.2 0.0 0.0
02:26 5.0 1.5 78 1030.7 6.9 E 9.2 0.0 0.0
02:27 5.0 1.5 78 1030.8 6.0 N 9.2 0.0 0.0
02:28 5.0 1.5 78 1030.8 6.0 NE 9.2 0.0 0.0
02:29 5.0 1.5 78 1030.9 5.4 N 9.2 0.0 0.0
02:30 5.0 1.5 78 1030.7 5.4 N 9.2 0.0 0.0
02:31 5.0 1.5 78 1030.7 3.8 NE 9.2 0.0 0.0
02:32 5.0 1.7 79 1030.6 3.8 N 9.2 0.0 0.0
02:33 5.0 1.7 79 1030.6 6.0 N 9.2 0.0 0.0
02:34 4.9 1.6 79 1030.7 6.0 NW 9.2 0.0 0.0
02:35 4.9 1.6 79 1030.7 8.3 NE 8.3 0.0 0.0
02:36 4.9 1.6 79 1030.7 4.5 N 8.3 0.0 0.0
02:38 4.9 1.6 79 1030.7 3.8 NW 8.3 0.0 0.0
02:39 4.9 1.6 79 1030.7 4.5 NE 8.3 0.0 0.0
02:40 4.8 1.5 79 1030.4 4.5 N 8.3 0.0 0.0
02:41 4.8 1.5 79 1030.4 5.4 N 8.3 0.0 0.0
02:42 4.8 1.5 79 1030.6 5.4 N 8.3 0.0 0.0
02:43 4.8 1.5 79 1030.5 5.4 NW 8.3 0.0 0.0
02:44 4.8 1.5 79 1030.4 5.4 N 8.3 0.0 0.0
02:45 4.8 1.5 79 1030.5 7.6 N 7.6 0.0 0.0
02:46 4.8 1.5 79 1030.5 7.6 N 7.6 0.0 0.0
02:47 4.8 1.5 79 1030.3 4.5 N 7.6 0.0 0.0
02:48 4.7 1.4 79 1030.5 6.0 N 7.6 0.0 0.0
02:49 4.7 1.4 79 1030.5 6.0 NW 7.6 0.0 0.0
02:50 4.7 1.5 80 1030.6 4.5 NE 7.6 0.0 0.0
02:51 4.7 1.5 80 1030.5 3.8 N 7.6 0.0 0.0
02:52 4.7 1.5 80 1030.5 4.5 E 7.6 0.0 0.0
02:53 4.7 1.5 80 1030.5 5.4 N 7.6 0.0 0.0
02:54 4.7 1.5 80 1030.5 6.0 N 7.6 0.0 0.0
02:55 4.6 1.5 80 1030.6 3.1 NE 7.6 0.0 0.0
02:56 4.6 1.5 80 1030.4 3.1 NW 7.6 0.0 0.0
02:57 4.6 1.5 80 1030.4 5.4 N 6.0 0.0 0.0
02:58 4.6 1.5 80 1030.2 5.4 NE 6.0 0.0 0.0
02:59 4.6 1.5 80 1030.5 3.8 N 6.0 0.0 0.0
03:00 4.6 1.5 80 1030.2 3.8 N 6.0 0.0 0.0
03:01 4.6 1.5 80 1030.3 3.8 N 6.0 0.0 0.0
03:02 4.6 1.5 80 1030.3 3.8 N 6.0 0.0 0.0
03:03 4.6 1.5 80 1030.2 3.8 N 6.0 0.0 0.0
03:04 4.6 1.5 80 1030.3 3.8 N 5.4 0.0 0.0
03:05 4.6 1.5 80 1030.4 3.8 N 5.4 0.0 0.0
03:06 4.6 1.5 80 1030.1 3.8 N 5.4 0.0 0.0
03:07 4.5 1.4 80 1030.5 4.5 NE 5.4 0.0 0.0
03:08 4.5 1.4 80 1030.5 6.9 NE 6.9 0.0 0.0
03:09 4.5 1.4 80 1030.4 6.0 N 6.9 0.0 0.0
03:10 4.5 1.4 80 1030.1 4.5 N 6.9 0.0 0.0
03:11 4.5 1.4 80 1030.2 9.8 N 9.8 0.0 0.0
03:12 4.5 1.4 80 1030.3 9.8 NW 9.8 0.0 0.0
03:13 4.5 1.4 80 1030.5 7.6 NW 9.8 0.0 0.0
03:14 4.5 1.4 80 1030.3 5.4 NW 9.8 0.0 0.0
03:16 4.5 1.4 80 1030.3 5.4 N 9.8 0.0 0.0
03:17 4.5 1.4 80 1030.4 3.1 NE 9.8 0.0 0.0
03:18 4.5 1.4 80 1030.3 3.1 W 9.8 0.0 0.0
03:19 4.5 1.4 80 1030.3 4.5 N 9.8 0.0 0.0
03:20 4.5 1.4 80 1030.2 4.5 N 9.8 0.0 0.0
03:21 4.5 1.4 80 1030.2 4.5 N 9.8 0.0 0.0
03:22 4.5 1.4 80 1030.3 4.5 N 7.6 0.0 0.0
03:23 4.5 1.4 80 1030.3 5.4 NW 6.0 0.0 0.0
03:24 4.5 1.4 80 1030.1 4.5 N 6.0 0.0 0.0
03:25 4.6 1.5 80 1030.3 6.9 NW 6.9 0.0 0.0
03:26 4.6 1.5 80 1030.3 5.4 N 6.9 0.0 0.0
03:27 4.6 1.5 80 1030.2 6.0 NW 6.9 0.0 0.0
03:28 4.6 1.6 81 1030.5 4.5 NW 6.9 0.0 0.0
03:29 4.6 1.6 81 1030.2 4.5 NE 6.9 0.0 0.0
03:30 4.6 1.6 81 1030.5 4.5 NW 6.9 0.0 0.0
03:31 4.7 1.7 81 1030.3 4.5 NW 6.9 0.0 0.0
03:32 4.7 1.7 81 1030.1 4.5 N 6.9 0.0 0.0
03:33 4.8 1.8 81 1030.1 5.4 NW 6.9 0.0 0.0
03:34 4.8 1.8 81 1030.2 5.4 N 6.9 0.0 0.0
03:35 4.8 1.8 81 1030.1 3.8 N 6.0 0.0 0.0
03:36 4.8 1.8 81 1030.1 3.8 NW 6.0 0.0 0.0
03:37 4.9 1.9 81 1030.2 3.8 N 5.4 0.0 0.0
03:38 4.9 1.9 81 1030.2 3.8 NE 5.4 0.0 0.0
03:39 4.9 1.9 81 1030.3 4.5 NE 5.4 0.0 0.0
03:40 4.9 1.9 81 1030.1 5.4 N 5.4 0.0 0.0
03:41 5.0 2.0 81 1030.1 5.4 NE 5.4 0.0 0.0
03:42 5.0 2.0 81 1030.2 6.0 N 6.0 0.0 0.0
03:43 5.0 2.0 81 1030.2 4.5 NE 6.0 0.0 0.0
03:44 5.0 2.0 81 1030.2 4.5 NE 6.0 0.0 0.0
03:45 5.1 2.1 81 1030.3 4.5 NW 6.0 0.0 0.0
03:46 5.1 2.1 81 1030.3 6.0 NW 6.0 0.0 0.0
03:47 5.1 2.1 81 1030.2 6.0 N 6.0 0.0 0.0
03:48 5.1 2.1 81 1030.1 6.9 N 6.9 0.0 0.0
03:50 5.2 2.2 81 1029.8 6.9 NW 8.3 0.0 0.0
03:51 5.2 2.2 81 1030.1 3.8 NW 8.3 0.0 0.0
03:52 5.2 2.2 81 1030.2 4.5 NE 8.3 0.0 0.0
03:53 5.3 2.3 81 1030.1 6.0 N 8.3 0.0 0.0
03:54 5.3 2.3 81 1030.2 6.0 N 8.3 0.0 0.0
03:55 5.3 2.3 81 1030.2 3.8 N 8.3 0.0 0.0
03:56 5.3 2.3 81 1030.0 6.0 NE 8.3 0.0 0.0
03:57 5.4 2.4 81 1030.3 3.8 NW 8.3 0.0 0.0
03:58 5.4 2.4 81 1030.3 3.8 NW 8.3 0.0 0.0
03:59 5.4 2.4 81 1030.1 5.4 N 8.3 0.0 0.0
04:00 5.4 2.2 80 1030.2 9.2 NW 9.2 0.0 0.0
04:01 5.4 2.2 80 1030.0 6.0 W 9.2 0.0 0.0
04:02 5.4 2.2 80 1030.2 3.8 W 9.2 0.0 0.0
04:03 5.4 2.2 80 1030.0 5.4 NW 9.2 0.0 0.0
04:04 5.4 2.2 80 1029.9 5.4 NW 9.2 0.0 0.0
04:05 5.5 2.3 80 1029.8 3.1 N 9.2 0.0 0.0
04:06 5.5 2.3 80 1030.0 4.5 NE 9.2 0.0 0.0
04:07 5.5 2.3 80 1030.0 5.4 N 9.2 0.0 0.0
04:08 5.5 2.3 80 1030.2 3.8 NW 9.2 0.0 0.0
04:09 5.5 2.3 80 1030.2 4.5 N 9.2 0.0 0.0
04:10 5.5 2.3 80 1030.0 3.8 N 6.0 0.0 0.0
04:11 5.5 2.3 80 1030.1 4.5 N 5.4 0.0 0.0
04:12 5.5 2.3 80 1029.8 5.4 N 5.4 0.0 0.0
04:13 5.5 2.3 80 1030.1 7.6 N 7.6 0.0 0.0
04:14 5.5 2.3 80 1029.9 7.6 N 7.6 0.0 0.0
04:15 5.5 2.3 80 1029.8 5.4 NE 7.6 0.0 0.0
04:16 5.6 2.4 80 1030.0 7.6 NE 7.6 0.0 0.0
04:17 5.6 2.4 80 1030.0 9.8 N 9.8 0.0 0.0
04:18 5.6 2.4 80 1029.9 6.0 NW 9.8 0.0 0.0
04:19 5.6 2.4 80 1030.0 5.4 N 9.8 0.0 0.0
04:20 5.6 2.4 80 1030.0 4.5 N 9.8 0.0 0.0
04:21 5.6 2.4 80 1029.8 5.4 NE 9.8 0.0 0.0
04:22 5.6 2.4 80 1029.9 3.1 N 9.8 0.0 0.0
04:23 5.6 2.4 80 1029.8 7.6 N 9.8 0.0 0.0
04:24 5.5 2.3 80 1029.8 7.6 N 9.8 0.0 0.0
04:25 5.5 2.3 80 1030.0 7.6 N 9.8 0.0 0.0
04:27 5.5 2.3 80 1030.0 6.0 N 7.6 0.0 0.0
04:28 5.5 2.3 80 1029.9 6.9 N 7.6 0.0 0.0
04:29 5.5 2.3 80 1030.0 7.6 N 7.6 0.0 0.0
04:30 5.5 2.3 80 1029.9 7.6 N 7.6 0.0 0.0
04:31 5.5 2.3 80 1030.0 7.6 NW 7.6 0.0 0.0
04:32 5.5 2.3 80 1030.1 6.9 W 7.6 0.0 0.0
04:33 5.5 2.3 80 1030.0 6.0 W 7.6 0.0 0.0
04:34 5.5 2.3 80 1030.1 6.0 N 7.6 0.0 0.0
04:35 5.5 2.3 80 1029.8 7.6 N 7.6 0.0 0.0
04:36 5.5 2.3 80 1029.9 5.4 N 7.6 0.0 0.0
04:37 5.5 2.3 80 1029.8 5.4 N 7.6 0.0 0.0
04:38 5.5 2.3 80 1030.0 6.0 NE 7.6 0.0 0.0
04:39 5.5 2.3 80 1029.9 6.9 NW 8.3 0.0 0.0
04:40 5.5 2.3 80 1030.2 9.2 N 9.2 0.0 0.0
04:41 5.5 2.3 80 1030.0 6.9 N 9.2 0.0 0.0
04:42 5.5 2.3 80 1030.1 7.6 NW 9.2 0.0 0.0
04:44 5.5 2.3 80 1029.9 10.7 NW 10.7 0.0 0.0
04:45 5.6 2.4 80 1029.9 13.0 NE 13.0 0.0 0.0
04:46 5.6 2.4 80 1029.9 6.0 NE 13.0 0.0 0.0
04:47 5.6 2.4 80 1029.8 8.3 NE 13.0 0.0 0.0
04:48 5.6 2.4 80 1029.8 8.3 SW 13.0 0.0 0.0
04:49 5.6 2.4 80 1030.0 6.9 NW 13.0 0.0 0.0
04:50 5.6 2.4 80 1029.5 6.9 NE 13.0 0.0 0.0
04:51 5.6 2.4 80 1030.0 6.0 NE 13.0 0.0 0.0
04:52 5.6 2.4 80 1029.7 6.9 N 13.0 0.0 0.0
04:53 5.6 2.4 80 1030.0 6.0 NW 13.0 0.0 0.0
04:54 5.6 2.4 80 1029.9 6.9 N 13.0 0.0 0.0
04:55 5.6 2.4 80 1029.9 7.6 N 13.0 0.0 0.0
04:56 5.6 2.4 80 1029.9 11.4 N 11.4 0.0 0.0
04:57 5.6 2.4 80 1029.7 7.6 ENE 11.4 0.0 0.0
04:58 5.6 2.4 80 1029.7 7.6 NW 11.4 0.0 0.0
04:59 5.6 2.4 80 1029.9 7.6 NW 11.4 0.0 0.0
05:00 5.6 2.4 80 1029.8 6.0 NE 11.4 0.0 0.0
05:01 5.6 2.4 80 1029.8 6.0 NE 11.4 0.0 0.0
05:02 5.6 2.4 80 1029.9 6.0 NE 11.4 0.0 0.0
05:03 5.6 2.4 80 1029.9 6.0 NE 11.4 0.0 0.0
05:04 5.6 2.4 80 1029.9 6.0 NE 11.4 0.0 0.0
05:05 5.6 2.4 80 1029.9 6.0 NE 11.4 0.0 0.0
05:06 5.6 2.4 80 1030.0 6.9 NE 7.6 0.0 0.0
05:07 5.6 2.4 80 1029.9 8.3 NE 8.3 0.0 0.0
05:08 5.6 2.4 80 1030.0 6.0 N 8.3 0.0 0.0
05:09 5.6 2.4 80 1029.9 9.2 NW 9.2 0.0 0.0
05:10 5.6 2.4 80 1029.7 8.3 WNW 9.2 0.0 0.0
05:11 5.7 2.5 80 1029.8 9.2 N 9.2 0.0 0.0
05:12 5.7 2.5 80 1029.7 12.1 N 12.1 0.0 0.0
05:13 5.7 2.5 80 1029.6 12.1 N 12.1 0.0 0.0
05:14 5.7 2.5 80 1029.8 5.4 NW 12.1 0.0 0.0
05:15 5.7 2.5 80 1030.0 6.9 N 12.1 0.0 0.0
05:16 5.7 2.5 80 1029.6 6.0 NE 12.1 0.0 0.0
05:17 5.7 2.5 80 1029.8 9.8 N 12.1 0.0 0.0
05:18 5.7 2.5 80 1030.0 9.8 NE 12.1 0.0 0.0
05:19 5.7 2.5 80 1029.8 6.9 N 12.1 0.0 0.0
05:20 5.7 2.5 80 1029.8 6.9 N 12.1 0.0 0.0
05:21 5.7 2.5 80 1029.8 6.0 NE 12.1 0.0 0.0
05:22 5.7 2.5 80 1029.8 5.4 N 12.1 0.0 0.0
05:23 5.7 2.5 80 1029.9 6.0 E 12.1 0.0 0.0
05:24 5.7 2.5 80 1029.9 5.4 N 9.8 0.0 0.0
05:25 5.7 2.5 80 1030.0 8.3 NNE 9.8 0.0 0.0
05:26 5.7 2.5 80 1030.0 6.0 NE 9.8 0.0 0.0
05:27 5.7 2.5 80 1029.9 6.0 N 9.8 0.0 0.0
05:28 5.7 2.5 80 1029.8 3.8 N 9.8 0.0 0.0
05:29 5.7 2.5 80 1030.0 6.9 N 9.8 0.0 0.0
05:30 5.7 2.5 80 1029.8 6.9 N 8.3 0.0 0.0
05:31 5.7 2.5 80 1029.7 7.6 N 8.3 0.0 0.0
05:32 5.7 2.5 80 1029.9 8.3 WNW 8.3 0.0 0.0
05:33 5.7 2.5 80 1029.9 6.9 N 9.8 0.0 0.0
05:34 5.7 2.5 80 1029.7 7.6 NE 9.8 0.0 0.0
05:35 5.7 2.5 80 1030.0 7.6 N 9.8 0.0 0.0
05:36 5.7 2.5 80 1029.7 11.4 NE 11.4 0.0 0.0
05:37 5.7 2.5 80 1029.9 9.2 NE 11.4 0.0 0.0
05:38 5.7 2.5 80 1029.9 9.2 N 11.4 0.0 0.0
05:39 5.7 2.5 80 1030.0 6.0 E 11.4 0.0 0.0
05:40 5.7 2.5 80 1029.8 8.3 NW 11.4 0.0 0.0
05:41 5.7 2.5 80 1029.8 6.9 NE 11.4 0.0 0.0
05:42 5.8 2.6 80 1029.9 8.3 NE 11.4 0.0 0.0
05:43 5.8 2.6 80 1029.8 6.9 N 11.4 0.0 0.0
05:44 5.8 2.6 80 1029.9 9.8 N 11.4 0.0 0.0
05:45 5.8 2.6 80 1029.7 6.9 N 11.4 0.0 0.0
05:46 5.8 2.6 80 1029.7 6.9 N 11.4 0.0 0.0
05:47 5.8 2.6 80 1029.9 8.3 N 11.4 0.0 0.0
05:48 5.8 2.6 80 1030.1 7.6 NW 9.8 0.0 0.0
05:49 5.8 2.6 80 1029.9 12.1 E 12.1 0.0 0.0
05:50 5.8 2.6 80 1029.9 9.2 N 12.1 0.0 0.0
05:51 5.7 2.5 80 1030.0 12.1 N 12.1 0.0 0.0
05:52 5.7 2.5 80 1029.8 9.8 NW 12.1 0.0 0.0
05:53 5.7 2.5 80 1029.7 9.8 NE 12.1 0.0 0.0
05:54 5.7 2.5 80 1029.7 8.3 NNE 12.1 0.0 0.0
05:55 5.7 2.5 80 1030.0 6.0 N 12.1 0.0 0.0
05:56 5.7 2.5 80 1029.8 6.9 NNE 12.1 0.0 0.0
05:57 5.7 2.5 80 1029.8 9.8 N 12.1 0.0 0.0
05:58 5.7 2.5 80 1029.8 9.2 NE 12.1 0.0 0.0
05:59 5.7 2.5 80 1029.9 7.6 N 12.1 0.0 0.0
06:00 5.7 2.5 80 1029.8 13.0 E 13.0 0.0 0.0
06:01 5.7 2.5 80 1029.7 13.0 E 13.0 0.0 0.0
06:02 5.6 2.4 80 1029.9 10.7 N 13.0 0.0 0.0
06:03 5.6 2.4 80 1029.7 6.0 NW 13.0 0.0 0.0
06:04 5.6 2.4 80 1029.8 6.0 NW 13.0 0.0 0.0
06:05 5.6 2.4 80 1029.7 5.4 NE 13.0 0.0 0.0
06:06 5.6 2.4 80 1029.7 6.0 NW 13.0 0.0 0.0
06:07 5.5 2.3 80 1029.7 6.9 N 13.0 0.0 0.0
06:08 5.5 2.2 79 1030.0 8.3 N 13.0 0.0 0.0
06:09 5.5 2.2 79 1029.7 5.4 N 13.0 0.0 0.0
06:10 5.5 2.2 79 1029.7 6.0 NW 13.0 0.0 0.0
06:11 5.4 2.1 79 1029.8 4.5 NE 10.7 0.0 0.0
06:12 5.4 2.1 79 1029.7 6.9 NE 10.7 0.0 0.0
06:13 5.4 2.1 79 1030.0 9.8 N 9.8 0.0 0.0
06:14 5.4 2.1 79 1029.9 8.3 N 9.8 0.0 0.0
06:15 5.3 2.0 79 1029.7 4.5 N 9.8 0.0 0.0
06:16 5.3 2.0 79 1029.8 9.2 N 9.8 0.0 0.0
06:17 5.3 2.0 79 1029.9 9.2 N 9.8 0.0 0.0
06:18 5.3 2.0 79 1029.9 6.9 NE 9.8 0.0 0.0
06:19 5.2 2.0 80 1029.9 4.5 NW 9.8 0.0 0.0
06:20 5.2 2.0 80 1030.0 6.0 N 9.8 0.0 0.0
06:21 5.2 2.0 80 1029.8 6.9 N 9.8 0.0 0.0
06:22 5.1 1.9 80 1029.9 9.8 SW 9.8 0.0 0.0
06:23 5.1 1.9 80 1030.0 9.8 SW 9.8 0.0 0.0
06:24 5.1 1.9 80 1029.9 6.9 NE 9.8 0.0 0.0
06:25 5.1 1.9 80 1029.9 7.6 NE 9.8 0.0 0.0
06:26 5.0 1.8 80 1029.7 9.2 NE 9.8 0.0 0.0
06:27 5.0 1.8 80 1029.9 9.8 NE 9.8 0.0 0.0
06:28 5.0 1.8 80 1030.0 7.6 N 9.8 0.0 0.0
06:29 5.0 1.8 80 1029.9 6.9 N 9.8 0.0 0.0
06:30 5.0 1.8 80 1030.0 7.6 NE 9.8 0.0 0.0
06:31 4.9 1.7 80 1029.8 9.2 NE 9.8 0.0 0.0
06:32 4.9 1.7 80 1029.9 6.9 N 9.8 0.0 0.0
06:33 4.9 1.7 80 1030.0 9.2 N 9.8 0.0 0.0
06:34 4.9 1.7 80 1029.7 9.2 NW 9.8 0.0 0.0
06:35 4.9 1.7 80 1030.0 8.3 NE 9.8 0.0 0.0
06:36 4.9 1.7 80 1030.1 6.0 N 9.8 0.0 0.0
06:38 4.8 1.6 80 1030.0 6.0 N 9.8 0.0 0.0
06:39 4.8 1.6 80 1029.9 5.4 N 9.8 0.0 0.0
06:40 4.8 1.6 80 1030.0 5.4 N 9.8 0.0 0.0
06:41 4.8 1.6 80 1030.1 7.6 NW 9.2 0.0 0.0
06:42 4.8 1.6 80 1030.1 9.2 NE 9.2 0.0 0.0
06:43 4.8 1.6 80 1030.0 7.6 NE 9.2 0.0 0.0
06:44 4.8 1.6 80 1030.1 6.9 NE 9.2 0.0 0.0
06:45 4.7 1.5 80 1030.1 6.0 NNE 9.2 0.0 0.0
06:46 4.7 1.5 80 1030.1 6.0 NNE 9.2 0.0 0.0
06:47 4.7 1.5 80 1029.9 6.9 N 9.2 0.0 0.0
06:48 4.7 1.5 80 1030.0 6.0 NE 9.2 0.0 0.0
06:49 4.7 1.5 80 1030.0 7.6 NW 9.2 0.0 0.0
06:50 4.6 1.5 80 1030.0 6.0 N 9.2 0.0 0.0
06:51 4.6 1.5 80 1029.9 6.9 NE 9.2 0.0 0.0
06:52 4.6 1.5 80 1029.8 5.4 NW 9.2 0.0 0.0
06:53 4.6 1.5 80 1030.1 6.0 N 7.6 0.0 0.0
06:54 4.6 1.5 80 1030.0 8.3 NE 8.3 0.0 0.0
06:55 4.5 1.4 80 1030.0 8.3 N 8.3 0.0 0.0
06:57 4.5 1.5 81 1030.1 6.0 N 8.3 0.0 0.0
06:58 4.5 1.5 81 1030.1 7.6 N 8.3 0.0 0.0
06:59 4.5 1.5 81 1030.1 6.9 W 8.3 0.0 0.0
07:00 4.5 1.5 81 1030.2 6.9 W 8.3 0.0 0.0
07:01 4.5 1.5 81 1030.2 6.9 W 8.3 0.0 0.0
07:02 4.5 1.5 81 1030.0 6.9 W 8.3 0.0 0.0
07:03 4.5 1.5 81 1030.0 6.9 W 8.3 0.0 0.0
07:04 4.5 1.5 81 1030.2 6.9 W 8.3 0.0 0.0
07:05 4.5 1.5 81 1030.1 6.9 W 8.3 0.0 0.0
07:06 4.5 1.5 81 1030.2 6.9 W 7.6 0.0 0.0
07:07 4.4 1.4 81 1030.3 6.9 NE 7.6 0.0 0.0
07:08 4.3 1.3 81 1030.3 4.5 NNE 7.6 0.0 0.0
07:09 4.3 1.3 81 1030.3 3.8 NW 6.9 0.0 0.0
07:10 4.3 1.3 81 1030.0 5.4 NE 6.9 0.0 0.0
07:11 4.3 1.3 81 1030.3 5.4 N 6.9 0.0 0.0
07:12 4.3 1.3 81 1030.3 4.5 NE 6.9 0.0 0.0
07:13 4.3 1.3 81 1030.4 4.5 NW 6.9 0.0 0.0
07:15 4.3 1.3 81 1030.3 5.4 N 7.6 0.0 0.0
07:16 4.2 1.2 81 1030.5 5.4 N 7.6 0.0 0.0
07:17 4.2 1.2 81 1030.4 6.9 N 7.6 0.0 0.0
07:18 4.2 1.2 81 1030.3 6.0 N 7.6 0.0 0.0
07:19 4.2 1.2 81 1030.3 6.9 W 7.6 0.0 0.0
07:20 4.2 1.2 81 1030.4 4.5 N 7.6 0.0 0.0
07:21 4.2 1.2 81 1030.4 7.6 NE 7.6 0.0 0.0
07:22 4.2 1.2 81 1030.4 7.6 NE 7.6 0.0 0.0
07:23 4.2 1.2 81 1030.5 5.4 N 7.6 0.0 0.0
07:24 4.2 1.2 81 1030.3 7.6 NE 7.6 0.0 0.0
07:25 4.2 1.2 81 1030.4 7.6 NE 7.6 0.0 0.0
07:26 4.2 1.2 81 1030.3 7.6 NW 7.6 0.0 0.0
07:27 4.2 1.2 81 1030.3 5.4 N 7.6 0.0 0.0
07:28 4.2 1.2 81 1030.3 9.2 N 9.2 0.0 0.0
07:29 4.2 1.2 81 1030.4 6.0 NE 9.2 0.0 0.0
07:31 4.2 1.2 81 1030.6 8.3 NE 9.2 0.0 0.0
07:32 4.2 1.2 81 1030.3 6.0 NE 9.2 0.0 0.0
07:33 4.2 1.2 81 1030.5 6.9 NE 9.2 0.0 0.0
07:34 4.2 1.2 81 1030.4 8.3 N 9.2 0.0 0.0
07:35 4.2 1.2 81 1030.5 8.3 NE 9.2 0.0 0.0
07:36 4.2 1.2 81 1030.3 8.3 NW 9.2 0.0 0.0
07:37 4.2 1.2 81 1030.4 9.2 N 9.2 0.0 0.0
07:38 4.2 1.2 81 1030.4 7.6 N 9.2 0.0 0.0
07:39 4.3 1.3 81 1030.5 9.8 NE 9.8 0.0 0.0
07:40 4.3 1.3 81 1030.3 11.4 NE 11.4 0.0 0.0
07:41 4.3 1.3 81 1030.3 8.3 N 11.4 0.0 0.0
07:42 4.3 1.3 81 1030.5 8.3 N 11.4 0.0 0.0
07:43 4.3 1.3 81 1030.3 10.7 N 11.4 0.0 0.0
07:44 4.3 1.3 81 1030.5 10.7 NE 11.4 0.0 0.0
07:45 4.3 1.3 81 1030.2 7.6 N 11.4 0.0 0.0
07:47 4.3 1.3 81 1030.4 10.7 N 11.4 0.0 0.0
07:48 4.3 1.3 81 1030.5 9.2 N 11.4 0.0 0.0
07:49 4.3 1.3 81 1030.6 6.0 N 11.4 0.0 0.0
07:50 4.3 1.3 81 1030.3 11.4 NW 11.4 0.0 0.0
07:51 4.3 1.3 81 1030.2 11.4 NE 11.4 0.0 0.0
07:52 4.3 1.3 81 1030.5 10.7 NW 11.4 0.0 0.0
07:53 4.4 1.4 81 1030.4 8.3 N 11.4 0.0 0.0
07:54 4.4 1.4 81 1030.4 8.3 N 11.4 0.0 0.0
07:55 4.4 1.4 81 1030.5 13.6 N 13.6 0.0 0.0
07:56 4.4 1.4 81 1030.6 8.3 NNE 13.6 0.0 0.0
07:57 4.4 1.4 81 1030.8 8.3 NE 13.6 0.0 0.0
07:58 4.4 1.4 81 1030.6 8.3 NE 13.6 0.0 0.0
07:59 4.4 1.4 81 1030.7 9.8 NE 13.6 0.0 0.0
08:00 4.4 1.4 81 1030.6 11.4 N 13.6 0.0 0.0
08:01 4.4 1.4 81 1030.6 16.8 S 16.8 0.0 0.0
08:02 4.5 1.5 81 1030.6 16.8 NE 16.8 0.0 0.0
08:03 4.5 1.4 80 1030.5 8.3 NE 16.8 0.0 0.0
08:04 4.5 1.4 80 1030.5 11.4 NW 16.8 0.0 0.0
08:05 4.5 1.4 80 1030.5 10.7 N 16.8 0.0 0.0
08:06 4.5 1.4 80 1030.6 10.7 NE 16.8 0.0 0.0
08:07 4.5 1.4 80 1030.6 10.7 NE 16.8 0.0 0.0
08:08 4.5 1.4 80 1030.7 11.4 NE 16.8 0.0 0.0
08:09 4.5 1.4 80 1030.7 6.0 NE 16.8 0.0 0.0
08:10 4.6 1.5 80 1030.7 6.0 E 16.8 0.0 0.0
08:11 4.6 1.5 80 1030.8 5.4 N 16.8 0.0 0.0
08:12 4.6 1.5 80 1030.8 8.3 WNW 16.8 0.0 0.0
08:13 4.6 1.5 80 1030.5 8.3 NW 11.4 0.0 0.0
08:14 4.6 1.5 80 1030.7 4.5 NE 11.4 0.0 0.0
08:15 4.6 1.5 80 1030.6 9.2 NE 11.4 0.0 0.0
08:16 4.6 1.5 80 1030.6 9.2 SE 11.4 0.0 0.0
08:17 4.6 1.5 80 1030.8 9.8 NE 11.4 0.0 0.0
08:18 4.6 1.3 79 1030.7 9.2 NE 11.4 0.0 0.0
08:19 4.6 1.3 79 1030.8 9.2 SW 10.7 0.0 0.0
08:20 4.6 1.3 79 1030.6 10.7 NE 10.7 0.0 0.0
08:21 4.7 1.4 79 1030.9 6.9 N 10.7 0.0 0.0
08:22 4.7 1.4 79 1030.9 9.2 NE 10.7 0.0 0.0
08:23 4.7 1.4 79 1030.9 9.2 N 10.7 0.0 0.0
08:24 4.7 1.4 79 1030.7 9.2 NE 10.7 0.0 0.0
08:25 4.8 1.3 78 1030.9 8.3 N 10.7 0.0 0.0
08:26 4.8 1.3 78 1030.9 6.9 W 10.7 0.0 0.0
08:27 4.8 1.3 78 1030.9 8.3 NE 10.7 0.0 0.0
08:28 4.8 1.3 78 1030.8 6.9 E 10.7 0.0 0.0
08:29 4.8 1.3 78 1030.8 6.9 N 10.7 0.0 0.0
08:30 4.8 1.3 78 1030.8 6.0 NE 10.7 0.0 0.0
08:31 4.8 1.3 78 1030.7 10.7 N 10.7 0.0 0.0
08:32 4.8 1.3 78 1030.7 7.6 N 10.7 0.0 0.0
08:33 4.9 1.4 78 1030.6 7.6 N 10.7 0.0 0.0
08:34 4.9 1.4 78 1030.6 8.3 N 10.7 0.0 0.0
08:35 4.9 1.4 78 1030.8 8.3 N 10.7 0.0 0.0
08:36 4.9 1.4 78 1030.5 8.3 N 10.7 0.0 0.0
08:37 4.9 1.4 78 1030.6 12.1 N 12.1 0.0 0.0
08:38 4.9 1.4 78 1030.7 9.8 N 12.1 0.0 0.0
08:39 4.9 1.2 77 1030.7 15.2 NE 15.2 0.0 0.0
08:40 4.9 1.2 77 1030.6 9.2 NE 15.2 0.0 0.0
08:41 5.0 1.3 77 1030.6 14.5 NE 15.2 0.0 0.0
08:42 5.0 1.3 77 1030.7 14.5 N 15.2 0.0 0.0
08:43 5.0 1.3 77 1030.6 10.7 N 15.2 0.0 0.0
08:44 5.0 1.3 77 1030.8 9.8 NW 15.2 0.0 0.0
08:45 5.0 1.3 77 1030.7 9.8 N 15.2 0.0 0.0
08:46 5.1 1.2 76 1030.7 7.6 NE 15.2 0.0 0.0
08:47 5.1 1.2 76 1030.6 6.9 N 15.2 0.0 0.0
08:48 5.1 1.2 76 1030.6 8.3 NW 15.2 0.0 0.0
08:49 5.1 1.2 76 1030.7 8.3 NE 15.2 0.0 0.0
08:50 5.1 1.2 76 1030.6 15.2 NW 15.2 0.0 0.0
08:51 5.1 1.2 76 1030.9 13.0 NE 15.2 0.0 0.0
08:52 5.2 1.3 76 1030.7 10.7 N 15.2 0.0 0.0
08:53 5.2 1.3 76 1030.6 13.0 NNE 15.2 0.0 0.0
08:54 5.2 1.3 76 1030.6 9.2 NE 15.2 0.0 0.0
08:56 5.2 1.1 75 1030.7 9.8 N 15.2 0.0 0.0
08:57 5.2 1.1 75 1030.8 12.1 N 15.2 0.0 0.0
08:58 5.3 1.2 75 1030.8 6.0 N 15.2 0.0 0.0
08:59 5.3 1.2 75 1030.8 7.6 N 15.2 0.0 0.0
09:00 5.3 1.2 75 1030.8 5.4 NW 15.2 0.0 0.0
09:01 5.3 1.2 75 1031.0 5.4 NW 13.0 0.0 0.0
09:02 5.3 1.2 75 1031.0 5.4 NW 13.0 0.0 0.0
09:03 5.3 1.2 75 1031.0 5.4 NW 13.0 0.0 0.0
09:04 5.3 1.2 75 1030.8 5.4 NW 13.0 0.0 0.0
09:05 5.3 1.2 75 1030.9 5.4 NW 13.0 0.0 0.0
09:06 5.4 1.3 75 1031.0 15.9 NE 15.9 0.0 0.0
09:07 5.4 1.3 75 1030.7 10.7 N 15.9 0.0 0.0
09:08 5.5 1.4 75 1030.8 13.0 E 15.9 0.0 0.0
09:09 5.5 1.2 74 1030.8 10.7 N 15.9 0.0 0.0
09:10 5.5 1.2 74 1030.8 9.2 W 15.9 0.0 0.0
09:11 5.5 1.2 74 1030.8 8.3 N 15.9 0.0 0.0
09:12 5.5 1.2 74 1030.8 7.6 NE 15.9 0.0 0.0
09:13 5.6 1.3 74 1030.8 15.2 N 15.9 0.0 0.0
09:14 5.6 1.3 74 1030.8 10.7 N 15.9 0.0 0.0
09:15 5.6 1.3 74 1030.7 10.7 N 15.9 0.0 0.0
09:16 5.6 1.3 74 1030.7 8.3 S 15.2 0.0 0.0
09:17 5.7 1.4 74 1030.7 9.2 NW 15.2 0.0 0.0
09:18 5.7 1.4 74 1030.8 9.2 NW 15.2 0.0 0.0
09:19 5.8 1.5 74 1030.6 13.6 NE 15.2 0.0 0.0
09:20 5.8 1.5 74 1030.8 8.3 WNW 15.2 0.0 0.0
09:21 5.9 1.6 74 1030.7 11.4 NW 15.2 0.0 0.0
09:22 5.9 1.6 74 1030.7 11.4 NW 15.2 0.0 0.0
09:23 5.9 1.6 74 1030.7 9.2 NW 15.2 0.0 0.0
09:24 5.9 1.6 74 1030.5 10.7 NW 13.6 0.0 0.0
09:25 5.9 1.4 73 1030.9 13.6 NE 13.6 0.0 0.0
09:26 5.9 1.4 73 1030.8 13.0 NE 13.6 0.0 0.0
09:27 5.9 1.4 73 1030.8 11.4 N 13.6 0.0 0.0
09:28 5.9 1.4 73 1030.8 7.6 N 13.6 0.0 0.0
09:29 5.9 1.4 73 1030.9 10.7 NE 13.6 0.0 0.0
09:30 5.9 1.4 73 1031.0 12.1 NE 13.6 0.0 0.0
09:31 5.9 1.4 73 1030.8 13.0 N 13.6 0.0 0.0
09:32 5.9 1.4 73 1030.9 11.4 NE 13.6 0.0 0.0
09:34 5.9 1.2 72 1030.9 16.8 N 16.8 0.0 0.0
09:35 6.0 1.3 72 1030.8 9.2 N 16.8 0.0 0.0
09:36 6.0 1.3 72 1030.8 9.8 N 16.8 0.0 0.0
09:37 6.0 1.3 72 1030.8 16.8 N 16.8 0.0 0.0
09:38 6.0 1.3 72 1030.8 13.6 NE 16.8 0.0 0.0
09:39 6.0 1.3 72 1030.6 13.6 N 16.8 0.0 0.0
09:40 6.0 1.3 72 1030.9 6.9 NE 16.8 0.0 0.0
09:41 6.0 1.3 72 1030.8 6.9 SW 16.8 0.0 0.0
09:42 6.0 1.3 72 1030.8 6.9 SW 16.8 0.0 0.0
09:43 6.1 1.4 72 1030.9 11.4 ENE 16.8 0.0 0.0
09:44 6.1 1.4 72 1030.7 11.4 NE 16.8 0.0 0.0
09:45 6.1 1.4 72 1030.8 15.2 NE 16.8 0.0 0.0
09:46 6.1 1.4 72 1030.8 9.2 SW 16.8 0.0 0.0
09:47 6.1 1.4 72 1030.7 13.0 N 16.8 0.0 0.0
09:48 6.1 1.4 72 1030.8 9.8 N 15.2 0.0 0.0
09:49 6.1 1.4 72 1030.7 9.8 N 15.2 0.0 0.0
09:50 6.1 1.4 72 1030.6 11.4 NE 15.2 0.0 0.0
09:51 6.2 1.5 72 1030.7 12.1 NE 15.2 0.0 0.0
09:52 6.2 1.5 72 1030.6 10.7 NE 15.2 0.0 0.0
09:53 6.2 1.5 72 1030.6 9.8 N 15.2 0.0 0.0
09:54 6.3 1.6 72 1030.6 6.9 SW 15.2 0.0 0.0
09:55 6.3 1.6 72 1030.7 8.3 W 13.0 0.0 0.0
09:56 6.3 1.6 72 1030.8 11.4 N 13.0 0.0 0.0
09:57 6.4 1.7 72 1030.7 11.4 E 13.0 0.0 0.0
09:58 6.4 1.7 72 1030.6 11.4 NE 12.1 0.0 0.0
09:59 6.4 1.7 72 1030.7 11.4 NE 12.1 0.0 0.0
10:00 6.5 1.8 72 1030.7 11.4 NE 12.1 0.0 0.0
10:01 6.5 1.8 72 1030.8 11.4 NE 11.4 0.0 0.0
10:02 6.5 1.8 72 1030.8 11.4 NE 11.4 0.0 0.0
10:03 6.5 1.8 72 1030.8 11.4 NE 11.4 0.0 0.0
10:04 6.5 1.8 72 1030.6 11.4 NE 11.4 0.0 0.0
10:05 6.5 1.8 72 1030.6 11.4 NE 11.4 0.0 0.0
10:06 6.5 1.8 72 1030.9 11.4 NE 11.4 0.0 0.0
10:07 6.5 1.8 72 1030.9 11.4 NE 11.4 0.0 0.0
10:08 6.5 1.8 72 1030.8 11.4 NE 11.4 0.0 0.0
10:09 6.8 1.9 71 1030.9 11.4 N 11.4 0.0 0.0
10:10 6.8 1.9 71 1030.8 6.9 NW 11.4 0.0 0.0
10:11 6.8 1.9 71 1030.9 6.9 N 11.4 0.0 0.0
10:12 6.8 1.9 71 1030.7 5.4 ESE 11.4 0.0 0.0
10:14 6.9 2.0 71 1030.7 9.2 W 11.4 0.0 0.0
10:15 6.9 2.0 71 1030.8 11.4 NNW 11.4 0.0 0.0
10:16 6.9 2.0 71 1030.9 11.4 W 11.4 0.0 0.0
10:17 6.9 2.0 71 1030.9 12.1 N 12.1 0.0 0.0
10:18 7.0 1.9 70 1030.7 6.9 SW 12.1 0.0 0.0
10:19 7.0 1.9 70 1030.9 9.2 N 12.1 0.0 0.0
10:20 7.0 1.9 70 1030.9 7.6 WNW 12.1 0.0 0.0
10:21 7.0 1.9 70 1030.6 13.0 N 13.0 0.0 0.0
10:22 7.0 1.9 70 1030.6 13.0 N 13.0 0.0 0.0
10:23 7.0 1.9 70 1030.6 16.8 NE 16.8 0.0 0.0
10:24 7.0 1.9 70 1030.7 10.7 N 16.8 0.0 0.0
10:25 7.1 2.0 70 1030.8 6.0 NE 16.8 0.0 0.0
10:26 7.1 2.0 70 1030.7 11.4 E 16.8 0.0 0.0
10:27 7.1 2.0 70 1030.7 9.8 NE 16.8 0.0 0.0
10:28 7.0 1.9 70 1030.7 10.7 N 16.8 0.0 0.0
10:29 7.0 1.9 70 1030.8 7.6 N 16.8 0.0 0.0
10:30 7.0 1.9 70 1030.6 10.7 NE 16.8 0.0 0.0
10:31 7.0 1.9 70 1030.9 10.7 N 16.8 0.0 0.0
10:32 7.0 1.9 70 1030.8 10.7 N 16.8 0.0 0.0
10:33 7.0 1.9 70 1030.9 7.6 N 16.8 0.0 0.0
10:34 7.1 2.0 70 1030.7 9.2 NE 13.6 0.0 0.0
10:35 7.1 2.0 70 1030.6 7.6 NE 13.6 0.0 0.0
10:36 7.1 2.0 70 1030.7 7.6 N 13.6 0.0 0.0
10:37 7.2 2.1 70 1030.5 9.8 NW 13.0 0.0 0.0
10:38 7.3 2.2 70 1030.8 8.3 N 13.0 0.0 0.0
10:39 7.4 2.3 70 1030.8 7.6 NNE 13.0 0.0 0.0
10:40 7.5 1.6 66 1031.0 9.8 NE 13.0 0.0 0.0
10:41 7.6 1.7 66 1030.7 6.9 N 13.0 0.0 0.0
10:42 7.6 1.4 65 1030.8 4.5 NE 13.0 0.0 0.0
10:43 7.7 1.5 65 1030.6 4.5 N 13.0 0.0 0.0
10:44 7.7 1.5 65 1030.5 9.8 N 13.0 0.0 0.0
10:45 7.7 1.5 65 1030.8 11.4 E 11.4 0.0 0.0
10:46 7.7 1.5 65 1031.0 8.3 NNE 11.4 0.0 0.0
10:47 7.7 1.5 65 1031.0 8.3 NE 11.4 0.0 0.0
10:48 7.7 1.3 64 1030.8 8.3 NE 11.4 0.0 0.0
10:49 7.6 1.2 64 1030.7 8.3 NE 11.4 0.0 0.0
10:50 7.7 1.3 64 1030.8 9.2 NE 11.4 0.0 0.0
10:51 7.6 1.0 63 1030.5 13.0 N 13.0 0.0 0.0
10:52 7.6 1.0 63 1030.6 9.2 N 13.0 0.0 0.0
10:53 7.6 1.0 63 1030.7 10.7 NE 13.0 0.0 0.0
10:54 7.6 1.0 63 1030.6 10.7 N 13.0 0.0 0.0
10:55 7.6 1.0 63 1030.8 9.2 N 13.0 0.0 0.0
10:57 7.7 1.1 63 1030.7 7.6 NE 13.0 0.0 0.0
10:58 7.8 1.2 63 1030.7 9.2 NW 13.0 0.0 0.0
10:59 7.9 1.3 63 1030.7 18.3 N 18.3 0.0 0.0
11:00 8.0 1.4 63 1030.8 18.3 NE 18.3 0.0 0.0
11:01 8.0 1.4 63 1030.6 18.3 NE 18.3 0.0 0.0
11:02 8.0 1.4 63 1030.5 18.3 NE 18.3 0.0 0.0
11:03 8.0 1.4 63 1030.5 18.3 NE 18.3 0.0 0.0
11:04 8.0 1.4 63 1030.5 18.3 NE 18.3 0.0 0.0
11:05 8.0 1.4 63 1030.6 18.3 NE 18.3 0.0 0.0
11:06 8.7 2.1 63 1030.5 13.0 NE 18.3 0.0 0.0
11:07 8.8 2.1 63 1030.7 10.7 NE 18.3 0.0 0.0
11:08 8.8 1.9 62 1030.4 9.8 N 18.3 0.0 0.0
11:09 8.7 1.8 62 1030.5 9.8 NE 18.3 0.0 0.0
11:10 8.7 1.6 61 1030.7 8.3 N 18.3 0.0 0.0
11:11 8.6 1.5 61 1030.6 15.9 NE 18.3 0.0 0.0
11:12 8.7 1.4 60 1030.4 15.2 NE 18.3 0.0 0.0
11:13 8.7 1.4 60 1030.7 13.6 E 18.3 0.0 0.0
11:14 8.7 1.4 60 1030.5 11.4 NW 18.3 0.0 0.0
11:15 8.7 1.4 60 1030.4 13.6 NW 18.3 0.0 0.0
11:17 9.0 1.7 60 1030.5 18.3 N 18.3 0.0 0.0
11:18 9.1 1.7 60 1030.1 13.0 N 18.3 0.0 0.0
11:19 9.1 1.7 60 1030.3 17.4 N 18.3 0.0 0.0
11:20 9.2 1.8 60 1030.3 13.0 N 18.3 0.0 0.0
11:21 9.4 2.0 60 1030.2 13.6 NE 18.3 0.0 0.0
11:22 9.5 2.1 60 1030.6 13.6 WNW 18.3 0.0 0.0
11:23 9.5 2.1 60 1030.4 13.6 NE 18.3 0.0 0.0
11:24 9.5 1.9 59 1030.3 15.9 N 18.3 0.0 0.0
11:25 9.5 1.7 58 1030.5 15.2 N 18.3 0.0 0.0
11:26 9.5 1.7 58 1030.3 11.4 NE 18.3 0.0 0.0
11:27 9.4 1.6 58 1030.4 10.7 SW 18.3 0.0 0.0
11:28 9.2 1.1 57 1030.3 9.8 NW 17.4 0.0 0.0
11:29 9.1 0.8 56 1030.2 12.1 NW 17.4 0.0 0.0
11:30 9.0 0.7 56 1030.3 12.1 E 15.9 0.0 0.0
11:31 8.8 0.8 57 1030.4 6.9 NW 15.9 0.0 0.0
11:32 8.7 0.7 57 1030.3 13.0 NNW 15.9 0.0 0.0
11:33 8.6 0.8 58 1030.4 13.0 N 15.9 0.0 0.0
11:34 8.6 0.8 58 1030.5 10.7 NE 15.9 0.0 0.0
11:36 8.7 1.4 60 1030.2 5.4 NE 13.0 0.0 0.0
11:37 9.0 1.7 60 1030.5 13.0 W 13.0 0.0 0.0
11:38 9.1 2.0 61 1030.4 15.2 NE 15.2 0.0 0.0
11:39 9.3 2.2 61 1030.4 15.2 N 15.2 0.0 0.0
11:40 9.4 2.3 61 1030.1 8.3 NE 15.2 0.0 0.0
11:41 9.7 2.3 60 1030.3 11.4 NNE 15.2 0.0 0.0
11:42 9.8 2.4 60 1030.2 14.5 NE 15.2 0.0 0.0
11:43 9.9 2.5 60 1030.4 10.7 NE 15.2 0.0 0.0
11:44 9.9 2.5 60 1030.3 13.0 N 15.2 0.0 0.0
11:45 9.9 2.3 59 1030.3 11.4 N 15.2 0.0 0.0
11:46 9.9 2.3 59 1030.3 13.0 E 15.2 0.0 0.0
11:47 10.0 2.1 58 1030.2 13.0 N 15.2 0.0 0.0
11:48 10.0 1.9 57 1030.3 11.4 S 15.2 0.0 0.0
11:49 9.9 1.5 56 1030.3 11.4 N 15.2 0.0 0.0
11:50 9.9 1.5 56 1030.4 10.7 W 14.5 0.0 0.0
11:51 9.8 1.4 56 1030.2 8.3 S 14.5 0.0 0.0
11:52 9.8 1.7 57 1030.3 6.9 S 14.5 0.0 0.0
11:53 9.8 1.7 57 1030.4 8.3 NE 13.0 0.0 0.0
11:54 9.8 1.7 57 1030.1 8.3 N 13.0 0.0 0.0
11:56 10.1 2.2 58 1030.4 9.8 NW 13.0 0.0 0.0
11:57 10.1 2.0 57 1030.0 9.8 N 13.6 0.0 0.0
11:58 10.2 2.1 57 1030.2 15.9 N 15.9 0.0 0.0
11:59 10.2 1.8 56 1030.2 15.9 N 15.9 0.0 0.0
12:00 10.2 1.8 56 1030.3 13.0 SW 15.9 0.0 0.0
12:01 10.2 1.8 56 1030.4 13.0 SW 15.9 0.0 0.0
12:02 10.3 2.2 57 1030.1 12.1 NE 15.9 0.0 0.0
12:03 10.3 2.2 57 1030.1 12.1 N 15.9 0.0 0.0
12:04 10.4 2.3 57 1030.2 13.0 NE 15.9 0.0 0.0
12:05 10.4 2.0 56 1030.0 12.1 N 15.9 0.0 0.0
12:06 10.4 2.0 56 1030.0 12.1 N 15.9 0.0 0.0
12:07 10.5 2.3 57 1030.3 11.4 E 15.9 0.0 0.0
12:08 10.6 2.2 56 1030.0 13.0 NE 15.9 0.0 0.0
12:09 10.6 2.2 56 1030.0 14.5 N 15.9 0.0 0.0
12:10 10.6 1.9 55 1030.1 14.5 NE 14.5 0.0 0.0
12:11 10.6 2.2 56 1030.0 8.3 N 14.5 0.0 0.0
12:12 10.6 2.2 56 1029.8 9.2 NW 14.5 0.0 0.0
12:13 10.7 2.3 56 1030.0 15.2 N 15.2 0.0 0.0
12:14 10.8 2.4 56 1029.9 10.7 N 15.2 0.0 0.0
12:15 10.8 2.4 56 1029.8 10.7 N 15.2 0.0 0.0
12:17 10.9 2.2 55 1029.9 13.6 N 15.2 0.0 0.0
12:18 10.9 2.0 54 1030.0 13.6 N 15.2 0.0 0.0
12:19 10.9 2.0 54 1030.0 12.1 NNW 15.2 0.0 0.0
12:20 10.8 1.9 54 1030.2 12.1 S 15.2 0.0 0.0
12:21 10.7 1.5 53 1030.0 15.9 N 15.9 0.0 0.0
12:22 10.7 1.5 53 1029.8 13.0 NE 15.9 0.0 0.0
12:23 10.7 1.5 53 1029.9 11.4 SW 15.9 0.0 0.0
12:24 10.7 1.5 53 1030.0 13.6 N 15.9 0.0 0.0
12:25 10.7 1.8 54 1030.1 16.8 N 16.8 0.0 0.0
12:26 10.7 1.8 54 1030.0 16.8 N 16.8 0.0 0.0
12:27 10.7 2.0 55 1030.0 9.8 N 16.8 0.0 0.0
12:28 10.8 1.9 54 1030.0 12.1 NE 16.8 0.0 0.0
12:29 10.8 1.9 54 1030.0 10.7 NE 16.8 0.0 0.0
12:30 10.7 1.8 54 1029.9 12.1 NE 16.8 0.0 0.0
12:31 10.8 1.9 54 1029.9 9.8 NE 16.8 0.0 0.0
12:32 10.8 1.9 54 1030.1 9.8 NE 16.8 0.0 0.0
12:33 10.8 1.9 54 1030.1 13.0 N 16.8 0.0 0.0
12:35 11.0 2.6 56 1030.0 6.9 SW 16.8 0.0 0.0
12:36 11.1 2.4 55 1030.0 8.3 N 13.6 0.0 0.0
12:37 11.1 2.4 55 1030.1 13.0 N 13.0 0.0 0.0
12:38 11.2 2.5 55 1029.9 12.1 NE 13.0 0.0 0.0
12:39 11.2 2.5 55 1029.9 15.2 NW 15.2 0.0 0.0
12:40 11.2 2.2 54 1029.9 12.1 N 15.2 0.0 0.0
12:41 11.3 2.3 54 1030.0 5.4 N 15.2 0.0 0.0
12:42 11.3 2.3 54 1030.0 9.2 NE 15.2 0.0 0.0
12:43 11.3 2.3 54 1030.0 9.8 N 15.2 0.0 0.0
12:44 11.4 2.7 55 1029.9 8.3 N 15.2 0.0 0.0
12:45 11.5 2.8 55 1030.0 9.8 N 15.2 0.0 0.0
12:46 11.5 2.8 55 1030.2 9.8 N 15.2 0.0 0.0
12:47 11.6 2.6 54 1030.1 8.3 N 15.2 0.0 0.0
12:48 11.6 2.3 53 1030.1 10.7 N 15.2 0.0 0.0
12:49 11.6 2.3 53 1029.9 10.7 NE 15.2 0.0 0.0
12:50 11.5 2.3 53 1030.1 11.4 N 12.1 0.0 0.0
12:51 11.5 2.3 53 1030.1 14.5 NE 14.5 0.0 0.0
12:52 11.3 1.8 52 1029.9 13.0 S 14.5 0.0 0.0
12:53 11.2 1.7 52 1030.0 13.6 N 14.5 0.0 0.0
12:54 11.1 1.3 51 1030.1 13.6 NW 14.5 0.0 0.0
12:55 11.1 1.9 53 1029.8 9.8 NW 14.5 0.0 0.0
12:56 11.1 1.9 53 1030.0 9.2 NW 14.5 0.0 0.0
12:57 11.1 1.9 53 1030.0 9.8 NE 14.5 0.0 0.0
12:58 11.1 1.9 53 1030.0 8.3 W 14.5 0.0 0.0
12:59 11.2 2.0 53 1029.9 14.5 SW 14.5 0.0 0.0
13:00 11.2 2.0 53 1030.1 13.6 N 14.5 0.0 0.0
13:01 11.2 2.0 53 1030.0 13.6 N 14.5 0.0 0.0
13:02 11.2 2.0 53 1029.8 13.6 N 14.5 0.0 0.0
13:03 11.2 2.0 53 1029.8 13.6 N 14.5 0.0 0.0
13:04 11.2 2.0 53 1029.9 13.6 N 14.5 0.0 0.0
13:05 11.4 2.9 56 1029.9 13.0 W 14.5 0.0 0.0
13:06 11.4 2.9 56 1029.9 13.0 W 14.5 0.0 0.0
13:07 11.5 3.0 56 1029.8 11.4 NE 14.5 0.0 0.0
13:08 11.6 2.9 55 1029.6 16.8 N 16.8 0.0 0.0
13:09 11.6 2.6 54 1029.9 15.2 N 16.8 0.0 0.0
13:10 11.5 2.5 54 1029.9 13.6 WNW 16.8 0.0 0.0
13:11 11.5 2.5 54 1029.9 13.0 E 16.8 0.0 0.0
13:12 11.5 2.5 54 1029.7 12.1 S 16.8 0.0 0.0
13:13 11.5 2.5 54 1029.7 17.4 NE 17.4 0.0 0.0
13:14 11.4 2.4 54 1029.5 14.5 NE 17.4 0.0 0.0
13:15 11.5 2.8 55 1029.7 8.3 N 17.4 0.0 0.0
13:16 11.6 3.1 56 1029.7 13.0 N 17.4 0.0 0.0
13:17 11.7 3.0 55 1029.8 13.6 NE 17.4 0.0 0.0
13:18 11.7 3.0 55 1029.6 9.2 N 17.4 0.0 0.0
13:20 11.9 3.4 56 1029.7 13.6 N 17.4 0.0 0.0
13:21 11.9 2.9 54 1029.8 10.7 SW 17.4 0.0 0.0
13:22 11.9 2.9 54 1029.7 9.8 N 17.4 0.0 0.0
13:23 11.9 2.9 54 1029.7 16.8 N 16.8 0.0 0.0
13:24 11.9 2.9 54 1029.6 16.8 W 16.8 0.0 0.0
13:25 11.8 2.5 53 1029.8 10.7 W 16.8 0.0 0.0
13:26 11.8 2.5 53 1029.7 10.7 NE 16.8 0.0 0.0
13:27 11.7 2.4 53 1029.7 11.4 N 16.8 0.0 0.0
13:28 11.7 2.7 54 1029.6 10.7 W 16.8 0.0 0.0
13:29 11.7 2.7 54 1029.7 9.2 S 16.8 0.0 0.0
13:30 11.7 2.7 54 1029.7 16.8 N 16.8 0.0 0.0
13:31 11.6 2.3 53 1029.8 11.4 WNW 16.8 0.0 0.0
13:32 11.6 2.3 53 1029.6 11.4 WNW 16.8 0.0 0.0
13:33 11.7 3.0 55 1029.6 10.7 E 16.8 0.0 0.0
13:34 11.7 2.7 54 1029.6 14.5 N 16.8 0.0 0.0
13:35 11.6 2.6 54 1029.9 11.4 E 16.8 0.0 0.0
13:36 11.6 2.6 54 1029.8 9.8 SE 16.8 0.0 0.0
13:37 11.5 2.5 54 1029.6 8.3 NE 16.8 0.0 0.0
13:38 11.5 2.5 54 1029.6 13.0 NE 16.8 0.0 0.0
13:39 11.4 2.4 54 1029.9 16.8 N 16.8 0.0 0.0
13:40 11.4 2.7 55 1029.8 10.7 N 16.8 0.0 0.0
13:42 11.5 2.8 55 1029.7 13.6 NNE 16.8 0.0 0.0
13:43 11.5 3.0 56 1029.6 13.0 N 16.8 0.0 0.0
13:44 11.5 2.8 55 1029.7 10.7 N 16.8 0.0 0.0
13:45 11.6 3.1 56 1029.8 19.7 NE 19.7 0.0 0.0
13:46 11.7 3.2 56 1029.9 15.2 N 19.7 0.0 0.0
13:47 11.7 3.0 55 1029.7 15.2 N 19.7 0.0 0.0
13:48 11.7 2.7 54 1029.7 5.4 N 19.7 0.0 0.0
13:49 11.7 2.7 54 1029.6 10.7 N 19.7 0.0 0.0
13:50 11.7 2.7 54 1029.7 10.7 NW 19.7 0.0 0.0
13:51 11.7 2.7 54 1029.6 8.3 S 19.7 0.0 0.0
13:52 11.9 3.4 56 1029.6 6.9 N 19.7 0.0 0.0
13:53 12.0 3.5 56 1029.6 13.6 NE 19.7 0.0 0.0
13:54 12.1 3.8 57 1029.7 8.3 SW 19.7 0.0 0.0
13:55 12.2 3.9 57 1029.6 9.2 N 19.7 0.0 0.0
13:56 12.3 3.5 55 1029.5 11.4 SW 15.2 0.0 0.0
13:57 12.2 3.2 54 1029.6 10.7 NE 15.2 0.0 0.0
13:58 12.1 2.8 53 1029.6 11.4 NW 13.6 0.0 0.0
13:59 12.0 2.7 53 1029.7 11.4 N 13.6 0.0 0.0
14:01 11.8 2.5 53 1029.7 12.1 E 13.6 0.0 0.0
14:02 11.8 2.5 53 1029.5 12.1 E 13.6 0.0 0.0
14:03 11.8 2.5 53 1029.4 12.1 E 12.1 0.0 0.0
14:04 11.8 2.5 53 1029.5 12.1 E 12.1 0.0 0.0
14:05 11.8 2.5 53 1029.7 12.1 E 12.1 0.0 0.0
14:06 11.9 2.9 54 1029.4 13.6 N 13.6 0.0 0.0
14:07 12.0 3.0 54 1029.7 6.0 NW 13.6 0.0 0.0
14:08 12.1 3.3 55 1029.6 5.4 NW 13.6 0.0 0.0
14:09 12.1 3.3 55 1029.4 10.7 N 13.6 0.0 0.0
14:10 12.2 3.2 54 1029.4 13.6 NW 13.6 0.0 0.0
14:11 12.2 3.2 54 1029.4 13.6 N 13.6 0.0 0.0
14:12 12.3 3.3 54 1029.4 13.6 NE 13.6 0.0 0.0
14:13 12.3 3.3 54 1029.5 13.6 NE 13.6 0.0 0.0
14:14 12.3 3.0 53 1029.3 11.4 N 13.6 0.0 0.0
14:15 12.3 3.0 53 1029.4 11.4 N 13.6 0.0 0.0
14:16 12.4 2.8 52 1029.4 9.2 E 13.6 0.0 0.0
14:17 12.3 3.0 53 1029.4 5.4 NW 13.6 0.0 0.0
14:18 12.4 3.1 53 1029.3 13.0 S 13.6 0.0 0.0
14:19 12.4 3.1 53 1029.3 13.0 N 13.6 0.0 0.0
14:20 12.3 3.0 53 1029.5 10.7 N 13.6 0.0 0.0
14:21 12.3 3.0 53 1029.2 9.2 N 13.6 0.0 0.0
14:22 12.3 3.3 54 1029.4 9.2 SW 13.6 0.0 0.0
14:24 12.3 3.3 54 1029.4 8.3 N 13.0 0.0 0.0
14:25 12.3 3.5 55 1029.1 8.3 NW 13.0 0.0 0.0
14:26 12.4 3.6 55 1029.6 6.9 N 13.0 0.0 0.0
14:27 12.5 2.9 52 1029.4 15.2 NE 15.2 0.0 0.0
14:28 12.5 2.6 51 1029.5 11.4 NE 15.2 0.0 0.0
14:29 12.5 2.6 51 1029.4 10.7 N 15.2 0.0 0.0
14:30 12.5 2.6 51 1029.3 10.7 N 15.2 0.0 0.0
14:31 12.4 3.1 53 1029.3 5.4 N 15.2 0.0 0.0
14:32 12.4 3.1 53 1029.4 15.2 N 15.2 0.0 0.0
14:33 12.4 3.1 53 1029.3 13.6 N 15.2 0.0 0.0
14:34 12.4 3.1 53 1029.1 13.6 N 15.2 0.0 0.0
14:35 12.3 3.0 53 1029.3 10.7 NE 15.2 0.0 0.0
14:36 12.3 2.7 52 1029.2 12.1 SW 15.2 0.0 0.0
14:37 12.3 3.0 53 1029.4 7.6 NE 15.2 0.0 0.0
14:38 12.4 3.1 53 1029.3 9.2 N 15.2 0.0 0.0
14:39 12.4 3.1 53 1029.3 13.0 NE 15.2 0.0 0.0
14:40 12.5 2.6 51 1029.2 9.8 NW 15.2 0.0 0.0
14:41 12.6 2.7 51 1029.4 11.4 N 15.2 0.0 0.0
14:42 12.6 2.7 51 1029.3 13.0 N 15.2 0.0 0.0
14:43 12.6 2.5 50 1029.3 12.1 N 13.6 0.0 0.0
14:44 12.5 1.8 48 1029.3 13.6 NE 14.5 0.0 0.0
14:45 12.4 2.3 50 1029.1 8.3 NE 14.5 0.0 0.0
14:46 12.3 2.2 50 1029.1 13.6 S 14.5 0.0 0.0
14:47 12.3 2.2 50 1029.2 13.6 S 14.5 0.0 0.0
14:48 12.2 2.1 50 1029.1 11.4 N 14.5 0.0 0.0
14:49 12.1 2.3 51 1029.3 13.0 N 14.5 0.0 0.0
14:50 12.1 2.3 51 1029.2 13.0 N 14.5 0.0 0.0
14:51 12.2 2.4 51 1029.2 11.4 SE 14.5 0.0 0.0
14:52 12.2 2.4 51 1029.0 13.6 SW 14.5 0.0 0.0
14:53 12.2 2.4 51 1029.1 13.6 SW 14.5 0.0 0.0
14:54 12.1 2.3 51 1029.2 14.5 N 14.5 0.0 0.0
14:55 12.1 2.3 51 1029.0 14.5 N 14.5 0.0 0.0
14:56 12.1 2.5 52 1028.9 12.1 E 14.5 0.0 0.0
14:57 12.1 2.5 52 1029.2 12.1 N 14.5 0.0 0.0
14:58 12.1 2.8 53 1029.1 13.6 N 14.5 0.0 0.0
14:59 12.1 2.8 53 1029.1 13.6 N 14.5 0.0 0.0
15:00 12.3 3.0 53 1029.3 6.0 E 14.5 0.0 0.0
15:01 12.3 3.0 53 1029.2 6.0 E 14.5 0.0 0.0
15:02 12.3 3.0 53 1029.1 6.0 E 14.5 0.0 0.0
15:03 12.3 3.0 53 1029.1 6.0 E 14.5 0.0 0.0
15:04 12.3 2.7 52 1028.9 8.3 NE 14.5 0.0 0.0
15:05 12.3 2.7 52 1029.1 10.7 N 14.5 0.0 0.0
15:06 12.4 2.8 52 1029.0 14.5 NE 14.5 0.0 0.0
15:07 12.4 2.8 52 1029.1 14.5 NE 14.5 0.0 0.0
15:08 12.4 2.5 51 1028.9 15.9 N 15.9 0.0 0.0
15:09 12.4 2.5 51 1029.0 15.9 N 15.9 0.0 0.0
15:10 12.4 2.5 51 1028.9 15.9 N 15.9 0.0 0.0
15:12 12.3 2.5 51 1029.0 13.0 N 15.9 0.0 0.0
15:13 12.3 2.5 51 1028.9 16.8 NE 16.8 0.0 0.0
15:14 12.4 2.5 51 1029.0 15.2 N 16.8 0.0 0.0
15:15 12.4 2.5 51 1028.9 15.2 N 16.8 0.0 0.0
15:16 12.4 2.5 51 1028.9 15.2 N 16.8 0.0 0.0
15:17 12.4 2.5 51 1028.9 15.2 N 16.8 0.0 0.0
15:18 12.4 2.5 51 1028.8 15.2 N 16.8 0.0 0.0
15:19 12.4 2.5 51 1028.7 15.2 N 16.8 0.0 0.0
15:20 12.5 1.5 47 1028.8 13.6 N 16.8 0.0 0.0
15:21 12.5 1.5 47 1028.9 13.6 N 16.8 0.0 0.0
15:22 12.4 2.3 50 1029.0 10.7 N 16.8 0.0 0.0
15:23 12.4 2.3 50 1028.9 10.7 NE 16.8 0.0 0.0
15:24 12.4 2.3 50 1029.0 11.4 N 16.8 0.0 0.0
15:25 12.4 2.3 50 1029.0 15.9 NNE 15.9 0.0 0.0
15:26 12.4 2.3 50 1028.9 15.9 NNE 15.9 0.0 0.0
15:27 12.4 2.3 50 1028.9 15.9 NNE 15.9 0.0 0.0
15:28 12.4 2.3 50 1028.8 15.9 NNE 15.9 0.0 0.0
15:29 12.2 2.1 50 1029.0 11.4 N 15.9 0.0 0.0
15:30 12.2 2.1 50 1028.9 11.4 N 15.9 0.0 0.0
15:31 12.2 2.1 50 1028.8 11.4 N 15.9 0.0 0.0
15:32 12.2 2.1 50 1028.8 8.3 WSW 15.9 0.0 0.0
15:33 12.2 2.1 50 1028.8 8.3 WSW 15.9 0.0 0.0
15:34 12.2 2.1 50 1028.8 8.3 WSW 15.9 0.0 0.0
15:35 12.3 2.2 50 1028.7 12.1 NE 15.9 0.0 0.0
15:36 12.3 2.2 50 1028.5 12.1 NE 15.9 0.0 0.0
15:37 12.3 2.2 50 1028.8 12.1 NE 15.9 0.0 0.0
15:38 12.3 2.2 50 1028.6 12.1 NE 12.1 0.0 0.0
15:39 12.3 2.2 50 1028.9 12.1 NE 12.1 0.0 0.0
15:40 12.3 2.2 50 1028.5 12.1 NE 12.1 0.0 0.0
15:41 12.3 2.2 50 1028.5 12.1 NE 12.1 0.0 0.0
15:42 12.3 2.2 50 1028.8 12.1 NE 12.1 0.0 0.0
15:43 12.3 2.2 50 1028.8 12.1 NE 12.1 0.0 0.0
15:44 12.3 2.2 50 1028.7 12.1 NE 12.1 0.0 0.0
15:45 12.5 2.1 49 1028.8 13.0 NW 13.0 0.0 0.0
15:46 12.6 2.2 49 1028.7 11.4 E 13.0 0.0 0.0
15:47 12.6 2.2 49 1028.8 11.4 E 13.0 0.0 0.0
15:48 12.6 2.2 49 1028.5 11.4 E 13.0 0.0 0.0
15:49 12.6 2.2 49 1028.8 11.4 E 13.0 0.0 0.0
15:50 12.5 2.1 49 1028.6 9.8 N 13.0 0.0 0.0
15:51 12.5 2.1 49 1028.6 12.1 SW 13.0 0.0 0.0
15:52 12.5 1.8 48 1028.6 8.3 NE 13.6 0.0 0.0
15:53 12.4 2.5 51 1028.6 13.6 N 13.6 0.0 0.0
15:55 12.4 2.5 51 1028.6 13.6 N 15.2 0.0 0.0
15:56 12.4 2.5 51 1028.6 13.6 N 15.2 0.0 0.0
15:57 12.4 2.5 51 1028.4 13.6 N 15.2 0.0 0.0
15:58 12.4 2.5 51 1028.7 13.6 N 15.2 0.0 0.0
15:59 12.4 2.5 51 1028.6 13.6 N 15.2 0.0 0.0
16:00 12.4 2.5 51 1028.5 11.4 NW 15.2 0.0 0.0
16:01 12.4 2.5 51 1028.7 11.4 NW 15.2 0.0 0.0
16:02 12.4 2.5 51 1028.5 11.4 NW 15.2 0.0 0.0
16:03 12.5 2.1 49 1028.5 5.4 N 15.2 0.0 0.0
16:04 12.5 2.1 49 1028.4 7.6 SE 13.6 0.0 0.0
16:05 12.6 2.5 50 1028.5 5.4 NW 13.6 0.0 0.0
16:06 12.6 2.5 50 1028.6 13.0 NNE 13.6 0.0 0.0
16:07 12.7 2.5 50 1028.5 13.0 N 13.6 0.0 0.0
16:08 12.7 2.5 50 1028.7 13.0 N 13.6 0.0 0.0
16:09 12.7 2.5 50 1028.6 13.0 N 13.6 0.0 0.0
16:10 12.7 2.5 50 1028.8 13.0 N 13.0 0.0 0.0
16:11 12.9 2.4 49 1028.7 9.2 NW 13.0 0.0 0.0
16:12 12.9 2.2 48 1028.7 10.7 N 13.0 0.0 0.0
16:13 12.9 2.2 48 1028.4 10.7 N 13.0 0.0 0.0
16:14 12.8 1.8 47 1028.6 14.5 NW 14.5 0.0 0.0
16:15 12.7 1.4 46 1028.5 6.0 N 14.5 0.0 0.0
16:16 12.7 1.4 46 1028.5 7.6 N 14.5 0.0 0.0
16:17 12.7 1.4 46 1028.5 7.6 N 14.5 0.0 0.0
16:18 12.7 1.4 46 1028.6 15.2 N 15.2 0.0 0.0
16:19 12.8 1.5 46 1028.6 10.7 NE 15.2 0.0 0.0
16:20 12.8 1.2 45 1028.2 15.2 NE 15.2 0.0 0.0
16:21 12.8 1.2 45 1028.5 8.3 NE 15.2 0.0 0.0
16:23 12.7 1.1 45 1028.3 13.0 NE 15.2 0.0 0.0
16:24 12.7 1.4 46 1028.6 13.6 N 15.2 0.0 0.0
16:25 12.6 1.3 46 1028.6 11.4 N 15.2 0.0 0.0
16:26 12.5 1.2 46 1028.5 14.5 N 17.4 0.0 0.0
16:27 12.5 1.2 46 1028.5 12.1 N 17.4 0.0 0.0
16:28 12.5 1.2 46 1028.5 12.1 N 17.4 0.0 0.0
16:29 12.4 2.3 50 1028.2 11.4 N 17.4 0.0 0.0
16:30 12.4 2.3 50 1028.5 13.0 N 17.4 0.0 0.0
16:31 12.4 2.3 50 1028.5 13.0 N 17.4 0.0 0.0
16:32 12.3 2.2 50 1028.2 10.7 NW 17.4 0.0 0.0
16:33 12.3 2.2 50 1028.4 13.6 N 17.4 0.0 0.0
16:34 12.2 2.1 50 1028.2 12.1 NE 17.4 0.0 0.0
16:35 12.2 2.1 50 1028.6 11.4 N 17.4 0.0 0.0
16:36 12.2 2.4 51 1028.3 12.1 N 17.4 0.0 0.0
16:37 12.2 2.6 52 1028.4 13.0 NNE 14.5 0.0 0.0
16:38 12.3 2.7 52 1028.2 13.0 N 14.5 0.0 0.0
16:39 12.3 2.7 52 1028.6 14.5 NE 14.5 0.0 0.0
16:40 12.3 2.5 51 1028.3 10.7 N 14.5 0.0 0.0
16:42 12.2 2.4 51 1028.4 9.8 N 14.5 0.0 0.0
16:43 12.2 2.4 51 1028.4 13.0 NE 14.5 0.0 0.0
16:44 12.1 2.3 51 1028.4 10.7 NE 14.5 0.0 0.0
16:45 12.1 2.3 51 1028.4 10.7 N 14.5 0.0 0.0
16:46 12.1 2.3 51 1028.4 13.6 N 14.5 0.0 0.0
16:47 12.1 2.3 51 1028.2 15.2 NE 15.2 0.0 0.0
16:48 12.1 2.3 51 1028.4 15.2 NE 15.2 0.0 0.0
16:49 12.0 1.9 50 1028.2 10.7 N 15.2 0.0 0.0
16:50 12.0 1.9 50 1028.5 14.5 W 15.2 0.0 0.0
16:51 12.0 1.9 50 1028.5 10.7 NE 15.2 0.0 0.0
16:52 12.0 2.2 51 1028.5 11.4 N 15.2 0.0 0.0
16:53 12.0 2.2 51 1028.4 11.4 N 15.2 0.0 0.0
16:54 12.1 2.3 51 1028.4 9.8 NE 15.2 0.0 0.0
16:55 12.1 2.3 51 1028.4 9.8 N 15.2 0.0 0.0
16:56 12.2 2.6 52 1028.3 7.6 NW 16.8 0.0 0.0
16:57 12.3 2.5 51 1028.4 13.6 NW 16.8 0.0 0.0
16:58 12.3 2.7 52 1028.5 9.8 NE 16.8 0.0 0.0
16:59 12.2 2.4 51 1028.3 12.1 NW 16.8 0.0 0.0
17:00 12.2 2.1 50 1028.4 15.9 NNE 16.8 0.0 0.0
17:01 12.2 2.1 50 1028.2 15.9 NNE 16.8 0.0 0.0
17:02 12.2 2.1 50 1028.3 15.9 NNE 16.8 0.0 0.0
17:04 12.0 1.9 50 1028.4 9.8 NE 16.8 0.0 0.0
17:05 12.0 1.9 50 1028.4 9.2 N 16.8 0.0 0.0
17:06 12.0 2.2 51 1028.2 7.6 N 15.9 0.0 0.0
17:07 12.0 2.2 51 1028.4 8.3 NE 15.9 0.0 0.0
17:08 12.0 2.2 51 1028.4 13.6 N 15.9 0.0 0.0
17:09 12.0 2.2 51 1028.4 13.6 NE 15.9 0.0 0.0
17:10 12.0 2.2 51 1028.2 12.1 NE 15.9 0.0 0.0
17:11 12.0 1.9 50 1028.4 13.0 N 15.9 0.0 0.0
17:12 12.0 1.9 50 1028.3 12.1 NE 13.6 0.0 0.0
17:13 12.0 1.9 50 1028.2 13.0 NE 13.6 0.0 0.0
17:14 12.1 2.0 50 1028.3 9.8 N 13.6 0.0 0.0
17:15 12.1 2.0 50 1028.2 11.4 N 13.6 0.0 0.0
17:16 12.1 2.0 50 1028.2 11.4 N 14.5 0.0 0.0
17:17 12.1 2.0 50 1028.2 11.4 N 14.5 0.0 0.0
17:18 12.1 2.0 50 1028.1 9.8 NE 14.5 0.0 0.0
17:19 12.0 1.9 50 1028.2 10.7 N 14.5 0.0 0.0
17:20 12.0 1.6 49 1028.4 13.6 N 14.5 0.0 0.0
17:21 11.8 1.4 49 1028.2 9.8 N 14.5 0.0 0.0
17:22 11.8 1.4 49 1028.1 9.8 N 14.5 0.0 0.0
17:23 11.7 1.6 50 1028.3 10.7 E 14.5 0.0 0.0
17:24 11.7 1.6 50 1028.2 8.3 S 14.5 0.0 0.0
17:25 11.6 1.5 50 1028.1 15.9 NNE 15.9 0.0 0.0
17:27 11.6 1.5 50 1028.1 12.1 NE 15.9 0.0 0.0
17:28 11.6 1.5 50 1028.1 12.1 NW 15.9 0.0 0.0
17:29 11.6 1.5 50 1028.1 12.1 NW 15.9 0.0 0.0
17:30 11.6 1.5 50 1028.1 8.3 S 15.9 0.0 0.0
17:31 11.5 1.4 50 1028.2 7.6 N 15.9 0.0 0.0
17:32 11.5 1.4 50 1028.4 7.6 N 15.9 0.0 0.0
17:33 11.6 1.5 50 1028.1 6.9 NE 15.9 0.0 0.0
17:34 11.6 1.5 50 1028.2 12.1 NE 15.9 0.0 0.0
17:35 11.6 1.5 50 1028.2 12.1 NE 15.9 0.0 0.0
17:36 11.6 1.5 50 1028.0 12.1 NE 12.1 0.0 0.0
17:37 11.5 1.4 50 1027.9 12.1 SW 12.1 0.0 0.0
17:38 11.5 1.7 51 1028.1 9.2 NE 12.1 0.0 0.0
17:39 11.5 1.7 51 1027.9 9.2 N 12.1 0.0 0.0
17:40 11.5 1.7 51 1028.0 9.2 N 12.1 0.0 0.0
17:41 11.5 1.7 51 1027.9 7.6 N 12.1 0.0 0.0
17:42 11.5 1.7 51 1028.0 8.3 NE 12.1 0.0 0.0
17:43 11.5 1.7 51 1028.1 8.3 NE 12.1 0.0 0.0
17:44 11.6 1.8 51 1028.1 12.1 E 12.1 0.0 0.0
17:45 11.6 1.8 51 1028.1 12.1 E 12.1 0.0 0.0
17:46 11.6 1.8 51 1028.0 9.8 NNE 12.1 0.0 0.0
17:47 11.6 1.8 51 1028.1 13.0 NW 13.0 0.0 0.0
17:48 11.6 1.8 51 1028.1 6.0 W 13.0 0.0 0.0
17:49 11.6 1.8 51 1028.4 10.7 NE 13.0 0.0 0.0
17:50 11.7 1.9 51 1028.0 10.7 N 13.0 0.0 0.0
17:51 11.7 1.9 51 1028.1 11.4 NNE 13.0 0.0 0.0
17:52 11.8 2.0 51 1028.2 11.4 NW 13.0 0.0 0.0
17:53 11.8 2.0 51 1028.1 9.2 E 13.0 0.0 0.0
17:54 11.8 2.0 51 1028.1 12.1 NE 13.0 0.0 0.0
17:55 11.8 2.0 51 1028.1 12.1 NE 13.0 0.0 0.0
17:56 11.8 2.0 51 1028.3 9.8 N 13.0 0.0 0.0
17:57 11.8 2.0 51 1028.1 12.1 N 13.0 0.0 0.0
17:58 11.8 2.0 51 1028.2 12.1 NE 12.1 0.0 0.0
17:59 11.8 2.0 51 1028.2 4.5 N 12.1 0.0 0.0
18:00 11.7 1.9 51 1027.9 13.6 N 13.6 0.0 0.0
18:01 11.7 1.9 51 1027.9 13.6 N 13.6 0.0 0.0
18:02 11.7 1.9 51 1028.1 13.6 N 13.6 0.0 0.0
18:03 11.5 1.7 51 1028.3 13.6 N 13.6 0.0 0.0
18:05 11.4 1.6 51 1028.2 3.8 NE 13.6 0.0 0.0
18:06 11.5 2.0 52 1028.1 6.0 NE 13.6 0.0 0.0
18:07 11.5 2.0 52 1028.2 6.0 N 13.6 0.0 0.0
18:08 11.5 2.0 52 1028.1 6.0 N 13.6 0.0 0.0
18:09 11.5 2.0 52 1028.0 9.2 N 13.6 0.0 0.0
18:10 11.4 1.9 52 1028.2 5.4 NE 13.6 0.0 0.0
18:11 11.4 1.9 52 1028.3 11.4 NE 13.6 0.0 0.0
18:12 11.4 1.9 52 1028.4 9.2 N 13.6 0.0 0.0
18:13 11.3 1.8 52 1028.1 9.2 NE 13.6 0.0 0.0
18:14 11.3 1.8 52 1028.2 9.2 NE 11.4 0.0 0.0
18:15 11.3 1.8 52 1028.2 9.2 NE 11.4 0.0 0.0
18:16 11.4 2.2 53 1028.2 7.6 N 11.4 0.0 0.0
18:17 11.4 2.2 53 1028.3 4.5 NW 11.4 0.0 0.0
18:18 11.4 2.2 53 1028.0 6.9 N 11.4 0.0 0.0
18:19 11.5 2.3 53 1028.0 4.5 NW 11.4 0.0 0.0
18:20 11.5 2.3 53 1028.1 7.6 N 11.4 0.0 0.0
18:21 11.4 1.9 52 1028.4 11.4 NE 11.4 0.0 0.0
18:22 11.4 1.9 52 1028.1 11.4 NE 11.4 0.0 0.0
18:23 11.4 1.9 52 1028.3 11.4 NE 11.4 0.0 0.0
18:24 11.3 2.1 53 1028.2 8.3 NE 11.4 0.0 0.0
18:25 11.3 2.1 53 1028.3 9.2 N 11.4 0.0 0.0
18:26 11.4 2.4 54 1028.1 7.6 NE 11.4 0.0 0.0
18:27 11.4 2.4 54 1028.2 7.6 N 11.4 0.0 0.0
18:28 11.4 2.4 54 1028.3 4.5 NE 11.4 0.0 0.0
18:29 11.4 2.4 54 1028.3 4.5 N 11.4 0.0 0.0
18:30 11.4 2.7 55 1028.2 7.6 N 11.4 0.0 0.0
18:31 11.5 2.8 55 1028.1 5.4 SE 11.4 0.0 0.0
18:32 11.5 2.8 55 1028.3 7.6 N 11.4 0.0 0.0
18:33 11.5 2.8 55 1028.1 9.2 N 9.2 0.0 0.0
18:34 11.5 2.8 55 1028.1 8.3 NE 9.2 0.0 0.0
18:35 11.5 2.8 55 1028.0 8.3 NNE 9.2 0.0 0.0
18:36 11.6 2.9 55 1028.2 6.0 NE 9.2 0.0 0.0
18:37 11.6 2.9 55 1028.1 9.8 N 9.8 0.0 0.0
18:38 11.6 2.9 55 1028.1 8.3 N 9.8 0.0 0.0
18:39 11.6 2.9 55 1028.1 8.3 N 9.8 0.0 0.0
18:40 11.5 2.5 54 1028.2 6.0 N 9.8 0.0 0.0
18:41 11.5 2.8 55 1028.1 4.5 NE 9.8 0.0 0.0
18:43 11.4 2.7 55 1027.9 8.3 NW 9.8 0.0 0.0
18:44 11.4 2.7 55 1028.2 8.3 NW 9.8 0.0 0.0
18:45 11.4 2.4 54 1028.2 6.0 N 9.8 0.0 0.0
18:46 11.3 2.3 54 1028.2 1.6 S 9.8 0.0 0.0
18:47 11.3 2.3 54 1028.0 8.3 NE 8.3 0.0 0.0
18:48 11.3 2.3 54 1028.1 6.0 NE 8.3 0.0 0.0
18:49 11.3 2.3 54 1028.1 8.3 NW 8.3 0.0 0.0
18:50 11.2 2.2 54 1028.1 3.8 NE 8.3 0.0 0.0
18:51 11.2 2.2 54 1028.1 3.8 NE 8.3 0.0 0.0
18:52 11.2 2.2 54 1028.1 6.9 N 8.3 0.0 0.0
18:53 11.1 1.9 53 1028.4 6.9 N 8.3 0.0 0.0
18:54 11.1 1.9 53 1028.0 6.9 N 8.3 0.0 0.0
18:55 11.1 1.9 53 1028.2 7.6 NW 8.3 0.0 0.0
18:56 11.0 1.5 52 1028.2 9.2 NE 9.2 0.0 0.0
18:57 11.0 1.5 52 1028.2 9.2 NE 9.2 0.0 0.0
18:58 10.9 1.4 52 1028.2 12.1 NE 12.1 0.0 0.0
18:59 10.9 1.2 51 1028.1 10.7 NE 12.1 0.0 0.0
19:00 10.8 1.1 51 1028.2 6.0 N 12.1 0.0 0.0
19:02 10.8 1.1 51 1028.0 6.0 N 12.1 0.0 0.0
19:03 10.8 1.1 51 1028.1 6.9 N 12.1 0.0 0.0
19:04 10.8 1.1 51 1028.0 6.9 N 12.1 0.0 0.0
19:05 10.7 1.0 51 1027.8 5.4 NW 12.1 0.0 0.0
19:06 10.7 1.0 51 1028.1 9.8 NE 12.1 0.0 0.0
19:07 10.7 1.0 51 1028.1 9.8 N 12.1 0.0 0.0
19:08 10.7 1.0 51 1028.0 6.9 NE 10.7 0.0 0.0
19:09 10.7 1.0 51 1027.9 5.4 N 9.8 0.0 0.0
19:10 10.7 1.0 51 1028.0 6.0 E 9.8 0.0 0.0
19:11 10.7 1.0 51 1028.2 6.0 NW 9.8 0.0 0.0
19:12 10.7 1.0 51 1027.9 3.8 NNE 9.8 0.0 0.0
19:13 10.7 1.0 51 1028.3 3.8 NE 9.8 0.0 0.0
19:14 10.7 1.0 51 1028.3 3.8 NE 9.8 0.0 0.0
19:15 10.7 1.0 51 1028.0 5.4 N 9.8 0.0 0.0
19:16 10.7 1.0 51 1028.0 6.9 NE 9.8 0.0 0.0
19:17 10.7 1.0 51 1028.1 3.8 N 9.8 0.0 0.0
19:18 10.7 1.0 51 1028.4 3.8 N 6.9 0.0 0.0
19:19 10.7 1.0 51 1027.9 3.8 N 6.9 0.0 0.0
19:20 10.6 0.9 51 1028.1 3.1 N 6.9 0.0 0.0
19:21 10.6 0.9 51 1028.0 3.1 N 6.9 0.0 0.0
19:22 10.6 0.9 51 1027.9 5.4 W 6.9 0.0 0.0
19:23 10.6 0.9 51 1028.3 4.5 N 6.9 0.0 0.0
19:24 10.6 0.9 51 1028.1 4.5 N 6.9 0.0 0.0
19:25 10.5 0.8 51 1028.0 2.2 N 6.9 0.0 0.0
19:26 10.5 0.8 51 1028.2 3.8 NE 6.9 0.0 0.0
19:28 10.4 0.7 51 1028.1 4.5 E 5.4 0.0 0.0
19:29 10.4 0.7 51 1028.2 4.5 E 5.4 0.0 0.0
19:30 10.4 0.7 51 1028.1 4.5 NNE 5.4 0.0 0.0
19:31 10.4 0.7 51 1028.2 4.5 NNE 5.4 0.0 0.0
19:32 10.4 0.7 51 1028.2 4.5 NNE 4.5 0.0 0.0
19:33 10.3 0.6 51 1028.1 6.0 N 6.0 0.0 0.0
19:34 10.2 0.5 51 1028.3 3.8 NE 6.0 0.0 0.0
19:35 10.2 0.5 51 1028.1 3.8 NE 6.0 0.0 0.0
19:36 10.1 0.4 51 1028.1 5.4 NW 6.0 0.0 0.0
19:37 10.1 0.4 51 1028.0 3.1 N 6.0 0.0 0.0
19:38 10.1 0.4 51 1028.3 3.1 N 6.0 0.0 0.0
19:39 10.0 0.3 51 1028.0 5.4 N 6.0 0.0 0.0
19:40 9.9 0.2 51 1028.2 5.4 NE 6.0 0.0 0.0
19:41 9.8 0.1 51 1028.3 6.0 NE 6.0 0.0 0.0
19:42 9.8 0.1 51 1028.3 5.4 N 6.0 0.0 0.0
19:43 9.7 0.1 51 1028.2 4.5 NE 6.0 0.0 0.0
19:44 9.7 0.1 51 1028.1 4.5 NE 6.0 0.0 0.0
19:45 9.6 0.0 51 1028.2 3.1 N 6.0 0.0 0.0
19:46 9.5 -0.1 51 1028.1 5.4 N 6.0 0.0 0.0
19:47 9.4 -0.2 51 1028.2 5.4 N 6.0 0.0 0.0
19:48 9.4 -0.2 51 1028.3 4.5 N 6.0 0.0 0.0
19:49 9.3 0.0 52 1028.1 3.1 N 6.0 0.0 0.0
19:50 9.3 0.0 52 1027.9 4.5 E 6.0 0.0 0.0
19:51 9.2 -0.1 52 1028.1 3.8 E 5.4 0.0 0.0
19:52 9.1 -0.2 52 1028.1 3.8 N 5.4 0.0 0.0
19:53 9.1 -0.2 52 1028.2 4.5 NE 5.4 0.0 0.0
19:54 9.0 -0.3 52 1028.2 4.5 NE 5.4 0.0 0.0
19:55 9.0 -0.3 52 1028.2 4.5 NE 5.4 0.0 0.0
19:56 8.9 -0.4 52 1028.1 6.0 NW 6.0 0.0 0.0
19:57 8.8 -0.5 52 1028.0 3.8 NNE 6.0 0.0 0.0
19:58 8.8 -0.5 52 1028.2 2.2 N 6.0 0.0 0.0
19:59 8.8 -0.5 52 1028.0 2.2 N 6.0 0.0 0.0
20:00 8.7 -0.3 53 1028.2 2.2 N 6.0 0.0 0.0
20:01 8.7 -0.3 53 1028.2 2.2 N 6.0 0.0 0.0
20:02 8.7 -0.3 53 1028.3 2.2 N 6.0 0.0 0.0
20:03 8.7 -0.3 53 1028.2 2.2 N 6.0 0.0 0.0
20:04 8.7 -0.3 53 1028.1 2.2 N 6.0 0.0 0.0
20:05 8.7 -0.3 53 1028.0 2.2 N 6.0 0.0 0.0
20:06 8.7 -0.3 53 1028.1 2.2 N 6.0 0.0 0.0
20:07 8.7 -0.3 53 1028.2 2.2 N 2.2 0.0 0.0
20:08 8.7 -0.3 53 1028.1 2.2 N 2.2 0.0 0.0
20:09 8.7 -0.3 53 1028.1 2.2 N 2.2 0.0 0.0
20:10 8.1 -0.6 54 1027.9 5.4 N 5.4 0.0 0.0
20:11 8.1 -0.6 54 1027.9 5.4 N 5.4 0.0 0.0
20:12 8.0 -0.7 54 1028.0 6.0 N 6.0 0.0 0.0
20:13 8.0 -0.7 54 1028.3 5.4 N 6.0 0.0 0.0
20:14 8.0 -0.7 54 1028.1 3.8 N 6.0 0.0 0.0
20:15 8.0 -0.7 54 1028.1 3.8 N 6.0 0.0 0.0
20:16 7.9 -0.6 55 1028.0 3.8 N 6.0 0.0 0.0
20:17 7.8 -0.7 55 1028.1 5.4 N 6.0 0.0 0.0
20:18 7.8 -0.7 55 1028.0 5.4 N 6.0 0.0 0.0
20:19 7.8 -0.7 55 1028.0 6.9 N 6.9 0.0 0.0
20:20 7.7 -0.8 55 1028.1 5.4 N 6.9 0.0 0.0
20:21 7.7 -0.8 55 1028.1 4.5 N 6.9 0.0 0.0
20:22 7.7 -0.8 55 1028.1 4.5 NW 6.9 0.0 0.0
20:23 7.7 -0.8 55 1027.9 4.5 N 6.9 0.0 0.0
20:24 7.6 -0.6 56 1028.0 5.4 NE 6.9 0.0 0.0
20:25 7.6 -0.6 56 1028.0 5.4 NNE 6.9 0.0 0.0
20:26 7.6 -0.6 56 1027.9 4.5 N 6.9 0.0 0.0
20:27 7.5 -0.7 56 1028.0 5.4 NW 6.9 0.0 0.0
20:28 7.5 -0.7 56 1028.1 5.4 NE 6.9 0.0 0.0
20:29 7.5 -0.7 56 1027.9 5.4 NE 6.9 0.0 0.0
20:30 7.5 -0.7 56 1028.1 3.1 NW 5.4 0.0 0.0
20:31 7.5 -0.7 56 1027.9 3.1 NW 5.4 0.0 0.0
20:32 7.4 0.4 61 1028.2 3.1 N 5.4 0.0 0.0
20:33 7.4 0.4 61 1028.1 3.8 NE 5.4 0.0 0.0
20:34 7.3 0.3 61 1028.3 2.2 N 5.4 0.0 0.0
20:35 7.3 0.3 61 1028.3 2.2 N 5.4 0.0 0.0
20:36 7.3 0.3 61 1028.1 3.1 N 5.4 0.0 0.0
20:37 7.3 0.3 61 1028.1 3.1 N 5.4 0.0 0.0
20:38 7.2 0.2 61 1028.1 2.2 NE 5.4 0.0 0.0
20:39 7.2 0.2 61 1028.1 1.6 NW 5.4 0.0 0.0
20:40 7.2 0.2 61 1028.1 1.6 NW 5.4 0.0 0.0
20:41 7.1 0.1 61 1028.2 1.6 NW 3.8 0.0 0.0
20:42 7.1 0.1 61 1028.3 0.7 NW 3.8 0.0 0.0
20:43 7.1 0.1 61 1028.2 0.7 NW 3.8 0.0 0.0
20:44 7.1 0.1 61 1028.4 1.6 NW 3.8 0.0 0.0
20:45 7.0 0.0 61 1028.2 0.7 NW 3.1 0.0 0.0
20:46 7.0 0.0 61 1028.1 0.7 NW 3.1 0.0 0.0
20:47 6.9 0.1 62 1028.1 1.6 NW 2.2 0.0 0.0
20:48 6.9 0.1 62 1028.5 1.6 NW 1.6 0.0 0.0
20:49 6.8 0.0 62 1028.4 1.6 NW 1.6 0.0 0.0
20:50 6.8 0.0 62 1028.4 1.6 NW 1.6 0.0 0.0
20:51 6.8 0.0 62 1028.4 1.6 NW 1.6 0.0 0.0
20:52 6.7 -0.1 62 1028.2 2.2 NW 2.2 0.0 0.0
20:53 6.6 -0.2 62 1028.3 2.2 W 2.2 0.0 0.0
20:54 6.5 -0.3 62 1028.3 3.1 NW 3.1 0.0 0.0
20:55 6.5 -0.3 62 1028.3 3.1 NW 3.1 0.0 0.0
20:56 6.4 -0.3 62 1028.2 2.2 NW 3.1 0.0 0.0
20:57 6.4 -0.3 62 1028.2 2.2 N 3.1 0.0 0.0
20:58 6.4 -0.3 62 1028.1 1.6 NW 3.1 0.0 0.0
20:59 6.3 -0.4 62 1028.3 1.6 NW 3.1 0.0 0.0
21:00 6.2 -0.5 62 1028.1 2.2 NW 3.1 0.0 0.0
21:01 6.2 -0.5 62 1028.3 2.2 NW 3.1 0.0 0.0
21:02 6.2 -0.5 62 1028.4 2.2 NW 3.1 0.0 0.0
21:03 6.2 -0.5 62 1028.3 2.2 NW 3.1 0.0 0.0
21:04 6.2 -0.5 62 1028.4 2.2 NW 3.1 0.0 0.0
21:05 6.2 -0.5 62 1028.3 2.2 NW 3.1 0.0 0.0
21:06 6.0 -0.5 63 1028.2 2.2 N 2.2 0.0 0.0
21:07 6.0 -0.5 63 1028.2 2.2 N 2.2 0.0 0.0
21:08 5.9 -0.6 63 1028.1 3.8 N 3.8 0.0 0.0
21:09 5.9 -0.4 64 1028.2 3.1 N 3.8 0.0 0.0
21:10 5.9 -0.4 64 1028.2 3.1 NW 3.8 0.0 0.0
21:11 5.8 -0.5 64 1028.3 3.1 N 3.8 0.0 0.0
21:12 5.8 -0.5 64 1028.2 3.1 N 3.8 0.0 0.0
21:13 5.8 -0.5 64 1028.1 3.8 NE 3.8 0.0 0.0
21:14 5.8 -0.5 64 1028.3 3.8 N 3.8 0.0 0.0
21:15 5.8 -0.5 64 1027.9 3.1 N 3.8 0.0 0.0
21:16 5.8 -0.3 65 1028.1 3.8 E 3.8 0.0 0.0
21:17 5.8 -0.3 65 1028.0 3.8 E 3.8 0.0 0.0
21:18 5.7 -0.4 65 1028.1 4.5 N 4.5 0.0 0.0
21:19 5.7 -0.4 65 1028.0 3.8 NE 4.5 0.0 0.0
21:20 5.7 -0.4 65 1028.2 5.4 NW 5.4 0.0 0.0
21:21 5.7 -0.4 65 1027.9 5.4 W 5.4 0.0 0.0
21:22 5.7 -0.4 65 1028.1 5.4 W 5.4 0.0 0.0
21:23 5.7 -0.2 66 1028.2 3.8 NW 5.4 0.0 0.0
21:24 5.7 -0.2 66 1028.3 3.1 N 5.4 0.0 0.0
21:25 5.7 -0.2 66 1028.2 1.6 W 5.4 0.0 0.0
21:26 5.7 -0.2 66 1028.2 3.1 NW 5.4 0.0 0.0
21:27 5.6 -0.2 66 1028.0 3.1 NW 5.4 0.0 0.0
21:28 5.6 -0.2 66 1028.0 1.6 N 5.4 0.0 0.0
21:29 5.6 -0.2 66 1028.0 3.1 W 5.4 0.0 0.0
21:30 5.5 -0.3 66 1028.0 3.1 NW 5.4 0.0 0.0
21:31 5.5 -0.3 66 1028.0 3.1 NW 5.4 0.0 0.0
21:32 5.5 -0.3 66 1027.9 2.2 NW 3.8 0.0 0.0
21:33 5.5 -0.3 66 1028.2 1.6 W 3.8 0.0 0.0
21:34 5.5 -0.3 66 1028.1 2.2 NW 3.8 0.0 0.0
21:35 5.4 -0.4 66 1028.2 2.2 W 3.8 0.0 0.0
21:36 5.4 -0.4 66 1028.2 1.6 NW 3.8 0.0 0.0
21:37 5.4 -0.4 66 1028.0 1.6 W 3.1 0.0 0.0
21:38 5.4 -0.4 66 1028.2 1.6 W 3.1 0.0 0.0
21:39 5.4 -0.2 67 1028.3 0.7 NW 3.1 0.0 0.0
21:40 5.3 -0.3 67 1028.2 0.7 NW 3.1 0.0 0.0
21:41 5.3 -0.3 67 1028.2 0.7 NW 3.1 0.0 0.0
21:42 5.3 -0.3 67 1028.3 1.6 W 2.2 0.0 0.0
21:43 5.2 -0.4 67 1028.2 1.6 NW 2.2 0.0 0.0
21:44 5.2 -0.4 67 1028.4 0.7 NW 2.2 0.0 0.0
21:45 5.2 -0.4 67 1028.2 0.7 NW 2.2 0.0 0.0
21:46 5.2 -0.4 67 1028.2 2.2 NW 2.2 0.0 0.0
21:47 5.2 -0.4 67 1028.3 0.7 NW 2.2 0.0 0.0
21:49 5.2 -0.4 67 1028.2 1.6 N 2.2 0.0 0.0
21:50 5.1 -0.3 68 1028.3 1.6 WNW 2.2 0.0 0.0
21:51 5.1 -0.3 68 1028.0 1.6 WNW 2.2 0.0 0.0
21:52 5.1 -0.3 68 1028.3 1.6 WNW 2.2 0.0 0.0
21:53 5.1 -0.3 68 1028.3 0.7 NW 2.2 0.0 0.0
21:54 5.1 -0.3 68 1028.2 2.2 NW 2.2 0.0 0.0
21:55 5.0 -0.4 68 1028.3 2.2 NW 2.2 0.0 0.0
21:56 5.0 -0.4 68 1028.1 2.2 NW 2.2 0.0 0.0
21:57 5.0 -0.4 68 1028.3 2.2 N 2.2 0.0 0.0
21:58 5.0 -0.4 68 1028.1 1.6 W 2.2 0.0 0.0
21:59 5.0 -0.2 69 1028.2 1.6 NW 2.2 0.0 0.0
22:00 4.9 -0.3 69 1028.0 1.6 NW 2.2 0.0 0.0
22:01 4.9 -0.3 69 1028.2 2.2 N 2.2 0.0 0.0
22:02 4.9 -0.3 69 1028.0 2.2 N 2.2 0.0 0.0
22:03 4.9 -0.3 69 1028.2 2.2 N 2.2 0.0 0.0
22:04 4.9 -0.3 69 1028.1 3.1 NW 3.1 0.0 0.0
22:05 4.9 -0.3 69 1028.0 2.2 NE 3.1 0.0 0.0
22:06 4.9 -0.3 69 1027.9 2.2 NW 3.1 0.0 0.0
22:08 4.9 -0.1 70 1027.9 2.2 N 3.1 0.0 0.0
22:09 4.9 -0.1 70 1028.0 3.1 NW 3.1 0.0 0.0
22:10 4.8 -0.2 70 1028.1 2.2 NW 3.1 0.0 0.0
22:11 4.8 -0.2 70 1027.9 2.2 N 3.1 0.0 0.0
22:12 4.8 -0.2 70 1027.9 3.1 N 3.1 0.0 0.0
22:13 4.8 -0.2 70 1027.9 3.1 N 3.1 0.0 0.0
22:14 4.8 -0.2 70 1027.7 3.1 NW 3.1 0.0 0.0
22:15 4.8 -0.2 70 1028.0 2.2 NE 3.1 0.0 0.0
22:16 4.8 -0.2 70 1028.0 3.1 NW 3.1 0.0 0.0
22:17 4.8 -0.2 70 1027.8 2.2 NW 3.1 0.0 0.0
22:18 4.8 -0.2 70 1028.0 2.2 NE 3.1 0.0 0.0
22:19 4.8 -0.2 70 1027.8 3.1 N 3.1 0.0 0.0
22:20 4.8 -0.2 70 1027.8 2.2 NW 3.8 0.0 0.0
22:21 4.8 -0.2 70 1027.9 3.8 NE 3.8 0.0 0.0
22:22 4.8 -0.2 70 1027.8 3.1 N 3.8 0.0 0.0
22:23 4.8 -0.2 70 1027.8 4.5 N 4.5 0.0 0.0
22:24 4.8 -0.2 70 1027.9 3.8 NW 4.5 0.0 0.0
22:25 4.8 0.0 71 1027.9 2.2 NW 4.5 0.0 0.0
22:26 4.8 0.0 71 1027.9 3.8 N 4.5 0.0 0.0
22:27 4.8 0.0 71 1027.9 3.8 N 4.5 0.0 0.0
22:28 4.8 0.0 71 1028.0 3.1 N 4.5 0.0 0.0
22:29 4.8 0.0 71 1028.0 3.8 N 4.5 0.0 0.0
22:30 4.8 0.0 71 1028.0 2.2 NW 4.5 0.0 0.0
22:31 4.8 0.0 71 1028.0 2.2 N 4.5 0.0 0.0
22:32 4.8 0.0 71 1028.1 2.2 N 4.5 0.0 0.0
22:33 4.8 0.0 71 1028.0 3.1 NW 4.5 0.0 0.0
22:34 4.7 -0.1 71 1028.0 2.2 NW 3.8 0.0 0.0
22:35 4.7 -0.1 71 1028.0 2.2 NW 3.8 0.0 0.0
22:36 4.7 -0.1 71 1027.9 2.2 NW 3.8 0.0 0.0
22:37 4.7 -0.1 71 1027.7 3.1 NW 3.8 0.0 0.0
22:38 4.7 -0.1 71 1028.0 2.2 NW 3.8 0.0 0.0
22:39 4.7 -0.1 71 1027.9 2.2 N 3.8 0.0 0.0
22:40 4.7 -0.1 71 1028.0 2.2 N 3.8 0.0 0.0
22:41 4.7 -0.1 71 1027.8 2.2 NW 3.1 0.0 0.0
22:42 4.7 -0.1 71 1028.1 2.2 NW 3.1 0.0 0.0
22:43 4.7 -0.1 71 1027.9 2.2 N 3.1 0.0 0.0
22:44 4.7 -0.1 71 1028.1 2.2 W 3.1 0.0 0.0
22:45 4.6 -0.2 71 1028.1 2.2 NW 3.1 0.0 0.0
22:46 4.6 -0.2 71 1027.8 2.2 W 3.1 0.0 0.0
22:47 4.6 -0.2 71 1027.8 1.6 NNE 2.2 0.0 0.0
22:48 4.6 -0.2 71 1027.9 2.2 NW 2.2 0.0 0.0
22:49 4.6 -0.2 71 1027.9 1.6 N 2.2 0.0 0.0
22:50 4.6 -0.2 71 1028.0 2.2 W 2.2 0.0 0.0
22:51 4.5 -0.3 71 1027.9 2.2 W 2.2 0.0 0.0
22:52 4.5 -0.3 71 1027.7 1.6 NW 2.2 0.0 0.0
22:53 4.5 -0.3 71 1028.0 1.6 NW 2.2 0.0 0.0
22:54 4.5 -0.3 71 1027.7 1.6 W 2.2 0.0 0.0
22:55 4.5 -0.3 71 1027.9 1.6 NW 2.2 0.0 0.0
22:56 4.4 -0.4 71 1027.8 2.2 NW 3.1 0.0 0.0
22:57 4.4 -0.4 71 1027.9 1.6 W 3.1 0.0 0.0
22:58 4.4 -0.4 71 1027.9 2.2 NW 3.1 0.0 0.0
22:59 4.3 -0.5 71 1027.7 2.2 W 3.1 0.0 0.0
23:00 4.3 -0.5 71 1027.8 2.2 NW 3.1 0.0 0.0
23:01 4.3 -0.5 71 1027.8 2.2 NW 3.1 0.0 0.0
23:02 4.3 -0.5 71 1028.0 2.2 NW 3.1 0.0 0.0
23:03 4.3 -0.5 71 1027.9 2.2 NW 3.1 0.0 0.0
23:04 4.3 -0.5 71 1028.0 2.2 NW 3.1 0.0 0.0
23:05 4.3 -0.5 71 1027.7 2.2 NW 3.1 0.0 0.0
23:06 4.2 -0.6 71 1027.7 1.6 N 2.2 0.0 0.0
23:07 4.1 -0.7 71 1027.8 1.6 NW 2.2 0.0 0.0
23:08 4.1 -0.7 71 1027.8 1.6 NW 2.2 0.0 0.0
23:09 4.1 -0.7 71 1027.9 1.6 NW 2.2 0.0 0.0
23:10 4.1 -0.7 71 1027.8 1.6 N 2.2 0.0 0.0
23:11 4.1 -0.7 71 1027.7 1.6 N 2.2 0.0 0.0
23:12 4.1 -0.7 71 1027.7 2.2 NW 2.2 0.0 0.0
23:13 4.1 -0.7 71 1027.9 2.2 NW 2.2 0.0 0.0
23:14 4.1 -0.5 72 1027.8 3.1 NW 3.1 0.0 0.0
23:15 4.1 -0.5 72 1027.9 2.2 NW 3.1 0.0 0.0
23:16 4.0 -0.6 72 1027.7 3.1 N 3.1 0.0 0.0
23:17 4.0 -0.6 72 1027.8 2.2 NW 3.1 0.0 0.0
23:18 4.0 -0.6 72 1027.6 2.2 NW 3.1 0.0 0.0
23:19 4.0 -0.6 72 1027.7 2.2 N 3.1 0.0 0.0
23:20 4.0 -0.6 72 1027.8 1.6 NW 3.1 0.0 0.0
23:21 4.0 -0.6 72 1027.8 1.6 NW 3.1 0.0 0.0
23:22 4.0 -0.6 72 1027.9 1.6 NW 3.1 0.0 0.0
23:23 4.0 -0.6 72 1027.9 1.6 NW 3.1 0.0 0.0
23:24 4.0 -0.6 72 1027.6 1.6 W 3.1 0.0 0.0
23:25 4.0 -0.6 72 1027.7 1.6 W 3.1 0.0 0.0
23:27 4.0 -0.6 72 1027.6 0.7 NW 3.1 0.0 0.0
23:28 4.0 -0.6 72 1027.7 2.2 NW 3.1 0.0 0.0
23:29 3.9 -0.7 72 1027.7 0.7 NW 3.1 0.0 0.0
23:30 3.9 -0.7 72 1027.7 0.7 NW 3.1 0.0 0.0
23:31 3.9 -0.7 72 1027.6 0.7 NW 3.1 0.0 0.0
23:32 3.9 -0.7 72 1027.5 2.2 NW 3.1 0.0 0.0
23:33 3.8 -0.8 72 1027.9 2.2 NW 3.1 0.0 0.0
23:34 3.8 -0.8 72 1027.6 0.7 NW 2.2 0.0 0.0
23:35 3.8 -0.8 72 1027.6 0.7 NW 2.2 0.0 0.0
23:36 3.7 -0.9 72 1027.6 1.6 NW 2.2 0.0 0.0
23:37 3.7 -0.9 72 1027.8 0.7 NW 2.2 0.0 0.0
23:38 3.7 -0.9 72 1027.7 0.7 NW 2.2 0.0 0.0
23:39 3.7 -0.9 72 1027.7 0.7 NW 2.2 0.0 0.0
23:40 3.7 -0.9 72 1027.7 2.2 NW 2.2 0.0 0.0
23:41 3.6 -1.0 72 1027.7 2.2 NW 2.2 0.0 0.0
23:42 3.6 -1.0 72 1027.7 1.6 NW 2.2 0.0 0.0
23:43 3.6 -1.0 72 1027.7 1.6 N 2.2 0.0 0.0
23:44 3.6 -1.0 72 1027.5 2.2 N 2.2 0.0 0.0
23:46 3.5 -0.9 73 1027.6 2.2 N 3.1 0.0 0.0
23:47 3.5 -0.9 73 1027.6 2.2 N 3.1 0.0 0.0
23:48 3.5 -0.9 73 1027.3 2.2 NW 3.1 0.0 0.0
23:49 3.5 -0.9 73 1027.6 2.2 NE 3.1 0.0 0.0
23:50 3.5 -0.9 73 1027.5 3.1 W 3.1 0.0 0.0
23:51 3.5 -0.9 73 1027.5 1.6 NW 3.1 0.0 0.0
23:52 3.5 -0.9 73 1027.5 2.2 NW 3.1 0.0 0.0
23:53 3.5 -0.9 73 1027.5 2.2 NW 3.1 0.0 0.0
23:54 3.5 -0.9 73 1027.5 1.6 W 3.1 0.0 0.0
23:55 3.5 -0.9 73 1027.6 1.6 NW 3.1 0.0 0.0
23:56 3.5 -0.9 73 1027.6 1.6 N 3.1 0.0 0.0
23:57 3.5 -0.9 73 1027.5 1.6 NW 3.1 0.0 0.0
23:58 3.5 -0.9 73 1027.4 1.6 NW 3.1 0.0 0.0

 

 

UK - WEATHER STATION TOPSITES - UK World Weather Websites

Copyright © Carnkie Weather 2009 - 2020.